Time,TemperatureF,DewpointF,PressureIn,WindDirection,WindDirectionDegrees,WindSpeedMPH,WindSpeedGustMPH,Humidity,HourlyPrecipIn,Conditions,Clouds,dailyrainin,SoftwareType,DateUTC
2013-12-05 00:01:00,41.1,37.8,30.29,WNW,282,5.0,7.0,88,0.00,,,0.05,VWS V13.01,2013-12-04 23:01:00,
2013-12-05 00:02:00,41.1,37.8,30.29,WNW,282,4.0,6.0,88,0.00,,,0.00,VWS V13.01,2013-12-04 23:02:00,
2013-12-05 00:04:00,41.1,37.8,30.29,WNW,282,4.0,6.0,88,0.00,,,0.00,VWS V13.01,2013-12-04 23:04:00,
2013-12-05 00:06:00,41.1,37.8,30.29,West,281,3.0,6.0,88,0.00,,,0.00,VWS V13.01,2013-12-04 23:06:00,
2013-12-05 00:07:00,41.1,37.8,30.29,WNW,282,3.0,4.0,88,0.00,,,0.00,VWS V13.01,2013-12-04 23:07:00,
2013-12-05 00:08:00,41.1,37.8,30.29,WNW,282,3.0,4.0,88,0.00,,,0.00,VWS V13.01,2013-12-04 23:08:00,
2013-12-05 00:09:00,41.1,37.8,30.29,WNW,282,3.0,4.0,88,0.00,,,0.00,VWS V13.01,2013-12-04 23:09:00,
2013-12-05 00:11:00,41.1,38.1,30.29,WNW,282,3.0,4.0,89,0.00,,,0.00,VWS V13.01,2013-12-04 23:11:00,
2013-12-05 00:12:00,41.1,38.1,30.29,West,281,2.0,4.0,89,0.00,,,0.00,VWS V13.01,2013-12-04 23:12:00,
2013-12-05 00:13:00,41.1,38.1,30.29,WNW,282,1.0,4.0,89,0.00,,,0.00,VWS V13.01,2013-12-04 23:13:00,
2013-12-05 00:14:00,41.1,38.1,30.29,WNW,282,4.0,4.0,89,0.00,,,0.00,VWS V13.01,2013-12-04 23:14:00,
2013-12-05 00:16:00,41.1,38.1,30.29,West,281,3.0,4.0,89,0.00,,,0.00,VWS V13.01,2013-12-04 23:16:00,
2013-12-05 00:17:00,41.1,38.1,30.29,WNW,282,5.0,5.0,89,0.00,,,0.00,VWS V13.01,2013-12-04 23:17:00,
2013-12-05 00:18:00,41.1,38.1,30.29,West,281,4.0,5.0,89,0.00,,,0.00,VWS V13.01,2013-12-04 23:18:00,
2013-12-05 00:19:00,41.0,38.0,30.29,West,281,4.0,5.0,89,0.00,,,0.00,VWS V13.01,2013-12-04 23:19:00,
2013-12-05 00:21:00,41.0,38.0,30.29,West,281,1.0,2.0,89,0.00,,,0.00,VWS V13.01,2013-12-04 23:21:00,
2013-12-05 00:22:00,40.9,37.9,30.29,WNW,282,1.0,2.0,89,0.00,,,0.00,VWS V13.01,2013-12-04 23:22:00,
2013-12-05 00:23:00,41.0,38.0,30.29,WNW,282,1.0,2.0,89,0.00,,,0.00,VWS V13.01,2013-12-04 23:23:00,
2013-12-05 00:24:00,40.9,37.9,30.29,WNW,282,0.0,2.0,89,0.00,,,0.00,VWS V13.01,2013-12-04 23:24:00,
2013-12-05 00:26:00,40.9,37.6,30.29,WNW,282,4.0,4.0,88,0.00,,,0.00,VWS V13.01,2013-12-04 23:26:00,
2013-12-05 00:27:00,40.9,37.6,30.29,WNW,282,1.0,4.0,88,0.00,,,0.00,VWS V13.01,2013-12-04 23:27:00,
2013-12-05 00:28:00,40.8,37.5,30.29,WNW,282,2.0,4.0,88,0.00,,,0.00,VWS V13.01,2013-12-04 23:28:00,
2013-12-05 00:29:00,40.8,37.5,30.29,West,281,1.0,4.0,88,0.00,,,0.00,VWS V13.01,2013-12-04 23:29:00,
2013-12-05 00:31:00,40.7,37.4,30.29,WNW,282,2.0,3.0,88,0.00,,,0.00,VWS V13.01,2013-12-04 23:31:00,
2013-12-05 00:32:00,40.7,37.4,30.29,WNW,282,1.0,3.0,88,0.00,,,0.00,VWS V13.01,2013-12-04 23:32:00,
2013-12-05 00:33:00,40.7,37.4,30.29,WNW,282,1.0,3.0,88,0.00,,,0.00,VWS V13.01,2013-12-04 23:33:00,
2013-12-05 00:34:00,40.7,37.7,30.29,West,281,0.0,3.0,89,0.00,,,0.00,VWS V13.01,2013-12-04 23:34:00,
2013-12-05 00:36:00,40.6,37.6,30.29,WNW,282,1.0,2.0,89,0.00,,,0.00,VWS V13.01,2013-12-04 23:36:00,
2013-12-05 00:37:00,40.6,37.6,30.29,WNW,282,1.0,2.0,89,0.00,,,0.00,VWS V13.01,2013-12-04 23:37:00,
2013-12-05 00:38:00,40.6,37.6,30.29,WNW,282,3.0,4.0,89,0.00,,,0.00,VWS V13.01,2013-12-04 23:38:00,
2013-12-05 00:39:00,40.6,37.6,30.29,WNW,282,2.0,4.0,89,0.00,,,0.00,VWS V13.01,2013-12-04 23:39:00,
2013-12-05 00:41:00,40.5,37.5,30.29,West,281,2.0,2.0,89,0.00,,,0.00,VWS V13.01,2013-12-04 23:41:00,
2013-12-05 00:42:00,40.5,37.5,30.29,West,281,2.0,2.0,89,0.00,,,0.00,VWS V13.01,2013-12-04 23:42:00,
2013-12-05 00:44:00,40.5,37.5,30.29,West,281,2.0,2.0,89,0.00,,,0.00,VWS V13.01,2013-12-04 23:44:00,
2013-12-05 00:46:00,40.5,37.5,30.30,West,281,2.0,2.0,89,0.00,,,0.00,VWS V13.01,2013-12-04 23:46:00,
2013-12-05 00:47:00,40.5,37.5,30.30,West,281,2.0,2.0,89,0.00,,,0.00,VWS V13.01,2013-12-04 23:47:00,
2013-12-05 00:49:00,40.5,37.5,30.30,West,281,2.0,2.0,89,0.00,,,0.00,VWS V13.01,2013-12-04 23:49:00,
2013-12-05 00:50:00,40.5,37.5,30.30,West,281,2.0,2.0,89,0.00,,,0.00,VWS V13.01,2013-12-04 23:50:00,
2013-12-05 00:51:00,40.5,37.5,30.30,West,281,2.0,2.0,89,0.00,,,0.00,VWS V13.01,2013-12-04 23:51:00,
2013-12-05 00:52:00,40.5,37.5,30.30,West,281,2.0,2.0,89,0.00,,,0.00,VWS V13.01,2013-12-04 23:52:00,
2013-12-05 00:54:00,40.5,37.5,30.30,West,281,2.0,2.0,89,0.00,,,0.00,VWS V13.01,2013-12-04 23:54:00,
2013-12-05 00:55:00,40.5,37.5,30.30,West,281,2.0,2.0,89,0.00,,,0.00,VWS V13.01,2013-12-04 23:55:00,
2013-12-05 00:56:00,40.5,37.5,30.30,West,281,2.0,2.0,89,0.00,,,0.00,VWS V13.01,2013-12-04 23:56:00,
2013-12-05 00:57:00,40.5,37.5,30.30,West,281,2.0,2.0,89,0.00,,,0.00,VWS V13.01,2013-12-04 23:57:00,
2013-12-05 00:59:00,40.5,37.5,30.30,West,281,2.0,2.0,89,0.00,,,0.00,VWS V13.01,2013-12-04 23:59:00,
2013-12-05 01:00:00,40.5,37.5,30.30,West,281,2.0,2.0,89,0.00,,,0.00,VWS V13.01,2013-12-05 00:00:00,
2013-12-05 01:02:00,40.5,37.5,30.29,West,281,2.0,2.0,89,0.00,,,0.00,VWS V13.01,2013-12-05 00:02:00,
2013-12-05 01:04:00,40.5,37.5,30.29,West,281,2.0,2.0,89,0.00,,,0.00,VWS V13.01,2013-12-05 00:04:00,
2013-12-05 01:05:00,40.5,37.5,30.29,West,281,2.0,2.0,89,0.00,,,0.00,VWS V13.01,2013-12-05 00:05:00,
2013-12-05 01:07:00,40.5,37.5,30.29,West,281,2.0,2.0,89,0.00,,,0.00,VWS V13.01,2013-12-05 00:07:00,
2013-12-05 01:09:00,40.5,37.5,30.29,West,281,2.0,2.0,89,0.00,,,0.00,VWS V13.01,2013-12-05 00:09:00,
2013-12-05 01:10:00,40.5,37.5,30.29,West,281,2.0,2.0,89,0.00,,,0.00,VWS V13.01,2013-12-05 00:10:00,
2013-12-05 01:12:00,40.5,37.5,30.29,West,281,2.0,2.0,89,0.00,,,0.00,VWS V13.01,2013-12-05 00:12:00,
2013-12-05 01:14:00,40.5,37.5,30.29,West,281,2.0,2.0,89,0.00,,,0.00,VWS V13.01,2013-12-05 00:14:00,
2013-12-05 01:15:00,40.5,37.5,30.29,West,281,2.0,2.0,89,0.00,,,0.00,VWS V13.01,2013-12-05 00:15:00,
2013-12-05 01:17:00,40.5,37.5,30.29,West,281,2.0,2.0,89,0.00,,,0.00,VWS V13.01,2013-12-05 00:17:00,
2013-12-05 01:19:00,40.5,37.5,30.29,West,281,2.0,2.0,89,0.00,,,0.00,VWS V13.01,2013-12-05 00:19:00,
2013-12-05 01:20:00,40.5,37.5,30.29,West,281,2.0,2.0,89,0.00,,,0.00,VWS V13.01,2013-12-05 00:20:00,
2013-12-05 01:22:00,40.5,37.5,30.29,West,281,2.0,2.0,89,0.00,,,0.00,VWS V13.01,2013-12-05 00:22:00,
2013-12-05 01:23:00,40.5,37.5,30.29,West,281,2.0,2.0,89,0.00,,,0.00,VWS V13.01,2013-12-05 00:23:00,
2013-12-05 01:24:00,40.5,37.5,30.29,West,281,2.0,2.0,89,0.00,,,0.00,VWS V13.01,2013-12-05 00:24:00,
2013-12-05 01:25:00,40.5,37.5,30.29,West,281,2.0,2.0,89,0.00,,,0.00,VWS V13.01,2013-12-05 00:25:00,
2013-12-05 01:27:00,40.5,37.5,30.29,West,281,2.0,2.0,89,0.00,,,0.00,VWS V13.01,2013-12-05 00:27:00,
2013-12-05 01:28:00,40.5,37.5,30.29,West,281,2.0,2.0,89,0.00,,,0.00,VWS V13.01,2013-12-05 00:28:00,
2013-12-05 01:29:00,40.5,37.5,30.29,West,281,2.0,2.0,89,0.00,,,0.00,VWS V13.01,2013-12-05 00:29:00,
2013-12-05 01:30:00,40.5,37.5,30.29,West,281,2.0,2.0,89,0.00,,,0.00,VWS V13.01,2013-12-05 00:30:00,
2013-12-05 01:32:00,40.5,37.5,30.28,West,281,2.0,2.0,89,0.00,,,0.00,VWS V13.01,2013-12-05 00:32:00,
2013-12-05 01:33:00,40.5,37.5,30.28,West,281,2.0,2.0,89,0.00,,,0.00,VWS V13.01,2013-12-05 00:33:00,
2013-12-05 01:34:00,40.5,37.5,30.28,West,281,2.0,2.0,89,0.00,,,0.00,VWS V13.01,2013-12-05 00:34:00,
2013-12-05 01:35:00,40.5,37.5,30.28,West,281,2.0,2.0,89,0.00,,,0.00,VWS V13.01,2013-12-05 00:35:00,
2013-12-05 01:37:00,40.5,37.5,30.28,West,281,2.0,2.0,89,0.00,,,0.00,VWS V13.01,2013-12-05 00:37:00,
2013-12-05 01:38:00,40.5,37.5,30.28,West,281,2.0,2.0,89,0.00,,,0.00,VWS V13.01,2013-12-05 00:38:00,
2013-12-05 01:39:00,40.5,37.5,30.28,West,281,2.0,2.0,89,0.00,,,0.00,VWS V13.01,2013-12-05 00:39:00,
2013-12-05 01:40:00,40.5,37.5,30.28,West,281,2.0,2.0,89,0.00,,,0.00,VWS V13.01,2013-12-05 00:40:00,
2013-12-05 01:42:00,40.5,37.5,30.28,West,281,2.0,2.0,89,0.00,,,0.00,VWS V13.01,2013-12-05 00:42:00,
2013-12-05 01:43:00,40.5,37.5,30.28,West,281,2.0,2.0,89,0.00,,,0.00,VWS V13.01,2013-12-05 00:43:00,
2013-12-05 01:44:00,40.5,37.5,30.28,West,281,2.0,2.0,89,0.00,,,0.00,VWS V13.01,2013-12-05 00:44:00,
2013-12-05 01:45:00,40.5,37.5,30.28,West,281,2.0,2.0,89,0.00,,,0.00,VWS V13.01,2013-12-05 00:45:00,
2013-12-05 01:47:00,40.5,37.5,30.28,West,281,2.0,2.0,89,0.00,,,0.00,VWS V13.01,2013-12-05 00:47:00,
2013-12-05 01:48:00,40.5,37.5,30.28,West,281,2.0,2.0,89,0.00,,,0.00,VWS V13.01,2013-12-05 00:48:00,
2013-12-05 01:50:00,40.5,37.5,30.28,West,281,2.0,2.0,89,0.00,,,0.00,VWS V13.01,2013-12-05 00:50:00,
2013-12-05 01:53:00,40.5,37.5,30.28,West,281,2.0,2.0,89,0.00,,,0.00,VWS V13.01,2013-12-05 00:53:00,
2013-12-05 01:55:00,40.5,37.5,30.28,West,281,2.0,2.0,89,0.00,,,0.00,VWS V13.01,2013-12-05 00:55:00,
2013-12-05 01:56:00,40.5,37.5,30.28,West,281,2.0,2.0,89,0.00,,,0.00,VWS V13.01,2013-12-05 00:56:00,
2013-12-05 01:58:00,40.5,37.5,30.28,West,281,2.0,2.0,89,0.00,,,0.00,VWS V13.01,2013-12-05 00:58:00,
2013-12-05 02:00:00,40.5,37.5,30.27,West,281,2.0,2.0,89,0.00,,,0.00,VWS V13.01,2013-12-05 01:00:00,
2013-12-05 02:01:00,40.5,37.5,30.27,West,281,2.0,2.0,89,0.00,,,0.00,VWS V13.01,2013-12-05 01:01:00,
2013-12-05 02:03:00,40.5,37.5,30.27,West,281,2.0,2.0,89,0.00,,,0.00,VWS V13.01,2013-12-05 01:03:00,
2013-12-05 02:05:00,40.5,37.5,30.27,West,281,2.0,2.0,89,0.00,,,0.00,VWS V13.01,2013-12-05 01:05:00,
2013-12-05 02:06:00,40.5,37.5,30.27,West,281,2.0,2.0,89,0.00,,,0.00,VWS V13.01,2013-12-05 01:06:00,
2013-12-05 02:08:00,40.5,37.5,30.27,West,281,2.0,2.0,89,0.00,,,0.00,VWS V13.01,2013-12-05 01:08:00,
2013-12-05 02:10:00,40.5,37.5,30.27,West,281,2.0,2.0,89,0.00,,,0.00,VWS V13.01,2013-12-05 01:10:00,
2013-12-05 02:11:00,40.5,37.5,30.27,West,281,2.0,2.0,89,0.00,,,0.00,VWS V13.01,2013-12-05 01:11:00,
2013-12-05 02:13:00,40.5,37.5,30.27,West,281,2.0,2.0,89,0.00,,,0.00,VWS V13.01,2013-12-05 01:13:00,
2013-12-05 02:15:00,40.5,37.5,30.27,West,281,2.0,2.0,89,0.00,,,0.00,VWS V13.01,2013-12-05 01:15:00,
2013-12-05 02:16:00,40.5,37.5,30.27,West,281,2.0,2.0,89,0.00,,,0.00,VWS V13.01,2013-12-05 01:16:00,
2013-12-05 02:17:00,40.5,37.5,30.27,West,281,2.0,2.0,89,0.00,,,0.00,VWS V13.01,2013-12-05 01:17:00,
2013-12-05 02:18:00,40.5,37.5,30.27,West,281,2.0,2.0,89,0.00,,,0.00,VWS V13.01,2013-12-05 01:18:00,
2013-12-05 02:20:00,40.5,37.5,30.27,West,281,2.0,2.0,89,0.00,,,0.00,VWS V13.01,2013-12-05 01:20:00,
2013-12-05 02:21:00,40.5,37.5,30.27,West,281,2.0,2.0,89,0.00,,,0.00,VWS V13.01,2013-12-05 01:21:00,
2013-12-05 02:22:00,40.5,37.5,30.27,West,281,2.0,2.0,89,0.00,,,0.00,VWS V13.01,2013-12-05 01:22:00,
2013-12-05 02:23:00,40.5,37.5,30.27,West,281,2.0,2.0,89,0.00,,,0.00,VWS V13.01,2013-12-05 01:23:00,
2013-12-05 02:24:00,40.5,37.5,30.27,West,281,2.0,2.0,89,0.00,,,0.00,VWS V13.01,2013-12-05 01:24:00,
2013-12-05 02:25:00,40.5,37.5,30.27,West,281,2.0,2.0,89,0.00,,,0.00,VWS V13.01,2013-12-05 01:25:00,
2013-12-05 02:26:00,40.5,37.5,30.27,West,281,2.0,2.0,89,0.00,,,0.00,VWS V13.01,2013-12-05 01:26:00,
2013-12-05 02:27:00,40.5,37.5,30.27,West,281,2.0,2.0,89,0.00,,,0.00,VWS V13.01,2013-12-05 01:27:00,
2013-12-05 02:28:00,40.5,37.5,30.27,West,281,2.0,2.0,89,0.00,,,0.00,VWS V13.01,2013-12-05 01:28:00,
2013-12-05 02:29:00,40.5,37.5,30.27,West,281,2.0,2.0,89,0.00,,,0.00,VWS V13.01,2013-12-05 01:29:00,
2013-12-05 02:30:00,40.5,37.5,30.27,West,281,2.0,2.0,89,0.00,,,0.00,VWS V13.01,2013-12-05 01:30:00,
2013-12-05 02:31:00,40.5,37.5,30.27,West,281,2.0,2.0,89,0.00,,,0.00,VWS V13.01,2013-12-05 01:31:00,
2013-12-05 02:32:00,40.5,37.5,30.27,West,281,2.0,2.0,89,0.00,,,0.00,VWS V13.01,2013-12-05 01:32:00,
2013-12-05 02:33:00,40.5,37.5,30.27,West,281,2.0,2.0,89,0.00,,,0.00,VWS V13.01,2013-12-05 01:33:00,
2013-12-05 02:35:00,40.5,37.5,30.27,West,281,2.0,2.0,89,0.00,,,0.00,VWS V13.01,2013-12-05 01:35:00,
2013-12-05 02:36:00,40.5,37.5,30.27,West,281,2.0,2.0,89,0.00,,,0.00,VWS V13.01,2013-12-05 01:36:00,
2013-12-05 02:37:00,40.5,37.5,30.27,West,281,2.0,2.0,89,0.00,,,0.00,VWS V13.01,2013-12-05 01:37:00,
2013-12-05 02:38:00,40.5,37.5,30.27,West,281,2.0,2.0,89,0.00,,,0.00,VWS V13.01,2013-12-05 01:38:00,
2013-12-05 02:39:00,40.5,37.5,30.27,West,281,2.0,2.0,89,0.00,,,0.00,VWS V13.01,2013-12-05 01:39:00,
2013-12-05 02:40:00,40.5,37.5,30.27,West,281,2.0,2.0,89,0.00,,,0.00,VWS V13.01,2013-12-05 01:40:00,
2013-12-05 02:41:00,40.5,37.5,30.27,West,281,2.0,2.0,89,0.00,,,0.00,VWS V13.01,2013-12-05 01:41:00,
2013-12-05 02:42:00,40.5,37.5,30.27,West,281,2.0,2.0,89,0.00,,,0.00,VWS V13.01,2013-12-05 01:42:00,
2013-12-05 02:43:00,40.5,37.5,30.27,West,281,2.0,2.0,89,0.00,,,0.00,VWS V13.01,2013-12-05 01:43:00,
2013-12-05 02:44:00,40.5,37.5,30.27,West,281,2.0,2.0,89,0.00,,,0.00,VWS V13.01,2013-12-05 01:44:00,
2013-12-05 02:45:00,40.5,37.5,30.26,West,281,2.0,2.0,89,0.00,,,0.00,VWS V13.01,2013-12-05 01:45:00,
2013-12-05 02:46:00,40.5,37.5,30.26,West,281,2.0,2.0,89,0.00,,,0.00,VWS V13.01,2013-12-05 01:46:00,
2013-12-05 02:47:00,40.5,37.5,30.26,West,281,2.0,2.0,89,0.00,,,0.00,VWS V13.01,2013-12-05 01:47:00,
2013-12-05 02:48:00,40.5,37.5,30.26,West,281,2.0,2.0,89,0.00,,,0.00,VWS V13.01,2013-12-05 01:48:00,
2013-12-05 02:49:00,40.5,37.5,30.26,West,281,2.0,2.0,89,0.00,,,0.00,VWS V13.01,2013-12-05 01:49:00,
2013-12-05 02:50:00,40.5,37.5,30.26,West,281,2.0,2.0,89,0.00,,,0.00,VWS V13.01,2013-12-05 01:50:00,
2013-12-05 02:51:00,40.5,37.5,30.26,West,281,2.0,2.0,89,0.00,,,0.00,VWS V13.01,2013-12-05 01:51:00,
2013-12-05 02:52:00,40.5,37.5,30.26,West,281,2.0,2.0,89,0.00,,,0.00,VWS V13.01,2013-12-05 01:52:00,
2013-12-05 02:53:00,40.5,37.5,30.26,West,281,2.0,2.0,89,0.00,,,0.00,VWS V13.01,2013-12-05 01:53:00,
2013-12-05 02:54:00,40.5,37.5,30.26,West,281,2.0,2.0,89,0.00,,,0.00,VWS V13.01,2013-12-05 01:54:00,
2013-12-05 02:55:00,40.5,37.5,30.26,West,281,2.0,2.0,89,0.00,,,0.00,VWS V13.01,2013-12-05 01:55:00,
2013-12-05 02:57:00,40.5,37.5,30.26,West,281,2.0,2.0,89,0.00,,,0.00,VWS V13.01,2013-12-05 01:57:00,
2013-12-05 02:58:00,40.5,37.5,30.26,West,281,2.0,2.0,89,0.00,,,0.00,VWS V13.01,2013-12-05 01:58:00,
2013-12-05 02:59:00,40.5,37.5,30.26,West,281,2.0,2.0,89,0.00,,,0.00,VWS V13.01,2013-12-05 01:59:00,
2013-12-05 03:00:00,40.5,37.5,30.26,West,281,2.0,2.0,89,0.00,,,0.00,VWS V13.01,2013-12-05 02:00:00,
2013-12-05 03:02:00,40.5,37.5,30.26,West,281,2.0,2.0,89,0.00,,,0.00,VWS V13.01,2013-12-05 02:02:00,
2013-12-05 03:03:00,40.5,37.5,30.26,West,281,2.0,2.0,89,0.00,,,0.00,VWS V13.01,2013-12-05 02:03:00,
2013-12-05 03:04:00,40.5,37.5,30.26,West,281,2.0,2.0,89,0.00,,,0.00,VWS V13.01,2013-12-05 02:04:00,
2013-12-05 03:05:00,40.5,37.5,30.26,West,281,2.0,2.0,89,0.00,,,0.00,VWS V13.01,2013-12-05 02:05:00,
2013-12-05 03:07:00,40.5,37.5,30.26,West,281,2.0,2.0,89,0.00,,,0.00,VWS V13.01,2013-12-05 02:07:00,
2013-12-05 03:08:00,40.5,37.5,30.26,West,281,2.0,2.0,89,0.00,,,0.00,VWS V13.01,2013-12-05 02:08:00,
2013-12-05 03:09:00,40.5,37.5,30.26,West,281,2.0,2.0,89,0.00,,,0.00,VWS V13.01,2013-12-05 02:09:00,
2013-12-05 03:11:00,40.5,37.5,30.26,West,281,2.0,2.0,89,0.00,,,0.00,VWS V13.01,2013-12-05 02:11:00,
2013-12-05 03:12:00,40.5,37.5,30.26,West,281,2.0,2.0,89,0.00,,,0.00,VWS V13.01,2013-12-05 02:12:00,
2013-12-05 03:13:00,40.5,37.5,30.26,West,281,2.0,2.0,89,0.00,,,0.00,VWS V13.01,2013-12-05 02:13:00,
2013-12-05 03:14:00,40.5,37.5,30.26,West,281,2.0,2.0,89,0.00,,,0.00,VWS V13.01,2013-12-05 02:14:00,
2013-12-05 03:16:00,40.5,37.5,30.26,West,281,2.0,2.0,89,0.00,,,0.00,VWS V13.01,2013-12-05 02:16:00,
2013-12-05 03:17:00,40.5,37.5,30.26,West,281,2.0,2.0,89,0.00,,,0.00,VWS V13.01,2013-12-05 02:17:00,
2013-12-05 03:18:00,40.5,37.5,30.26,West,281,2.0,2.0,89,0.00,,,0.00,VWS V13.01,2013-12-05 02:18:00,
2013-12-05 03:19:00,40.5,37.5,30.26,West,281,2.0,2.0,89,0.00,,,0.00,VWS V13.01,2013-12-05 02:19:00,
2013-12-05 03:21:00,40.5,37.5,30.26,West,281,2.0,2.0,89,0.00,,,0.00,VWS V13.01,2013-12-05 02:21:00,
2013-12-05 03:22:00,40.5,37.5,30.26,West,281,2.0,2.0,89,0.00,,,0.00,VWS V13.01,2013-12-05 02:22:00,
2013-12-05 03:23:00,40.5,37.5,30.26,West,281,2.0,2.0,89,0.00,,,0.00,VWS V13.01,2013-12-05 02:23:00,
2013-12-05 03:24:00,40.5,37.5,30.26,West,281,2.0,2.0,89,0.00,,,0.00,VWS V13.01,2013-12-05 02:24:00,
2013-12-05 03:26:00,40.5,37.5,30.26,West,281,2.0,2.0,89,0.00,,,0.00,VWS V13.01,2013-12-05 02:26:00,
2013-12-05 03:27:00,40.5,37.5,30.26,West,281,2.0,2.0,89,0.00,,,0.00,VWS V13.01,2013-12-05 02:27:00,
2013-12-05 03:28:00,40.5,37.5,30.26,West,281,2.0,2.0,89,0.00,,,0.00,VWS V13.01,2013-12-05 02:28:00,
2013-12-05 03:29:00,40.5,37.5,30.26,West,281,2.0,2.0,89,0.00,,,0.00,VWS V13.01,2013-12-05 02:29:00,
2013-12-05 03:31:00,40.5,37.5,30.26,West,281,2.0,2.0,89,0.00,,,0.00,VWS V13.01,2013-12-05 02:31:00,
2013-12-05 03:32:00,40.5,37.5,30.26,West,281,2.0,2.0,89,0.00,,,0.00,VWS V13.01,2013-12-05 02:32:00,
2013-12-05 03:33:00,40.5,37.5,30.26,West,281,2.0,2.0,89,0.00,,,0.00,VWS V13.01,2013-12-05 02:33:00,
2013-12-05 03:34:00,40.5,37.5,30.26,West,281,2.0,2.0,89,0.00,,,0.00,VWS V13.01,2013-12-05 02:34:00,
2013-12-05 03:36:00,40.5,37.5,30.26,West,281,2.0,2.0,89,0.00,,,0.00,VWS V13.01,2013-12-05 02:36:00,
2013-12-05 03:38:00,40.5,37.5,30.26,West,281,2.0,2.0,89,0.00,,,0.00,VWS V13.01,2013-12-05 02:38:00,
2013-12-05 03:39:00,40.5,37.5,30.26,West,281,2.0,2.0,89,0.00,,,0.00,VWS V13.01,2013-12-05 02:39:00,
2013-12-05 03:41:00,40.5,37.5,30.26,West,281,2.0,2.0,89,0.00,,,0.00,VWS V13.01,2013-12-05 02:41:00,
2013-12-05 03:43:00,40.5,37.5,30.26,West,281,2.0,2.0,89,0.00,,,0.00,VWS V13.01,2013-12-05 02:43:00,
2013-12-05 03:44:00,40.5,37.5,30.26,West,281,2.0,2.0,89,0.00,,,0.00,VWS V13.01,2013-12-05 02:44:00,
2013-12-05 03:46:00,40.5,37.5,30.25,West,281,2.0,2.0,89,0.00,,,0.00,VWS V13.01,2013-12-05 02:46:00,
2013-12-05 03:48:00,40.5,37.5,30.25,West,281,2.0,2.0,89,0.00,,,0.00,VWS V13.01,2013-12-05 02:48:00,
2013-12-05 03:49:00,40.5,37.5,30.25,West,281,2.0,2.0,89,0.00,,,0.00,VWS V13.01,2013-12-05 02:49:00,
2013-12-05 03:51:00,40.5,37.5,30.25,West,281,2.0,2.0,89,0.00,,,0.00,VWS V13.01,2013-12-05 02:51:00,
2013-12-05 03:53:00,40.5,37.5,30.25,West,281,2.0,2.0,89,0.00,,,0.00,VWS V13.01,2013-12-05 02:53:00,
2013-12-05 03:54:00,40.5,37.5,30.25,West,281,2.0,2.0,89,0.00,,,0.00,VWS V13.01,2013-12-05 02:54:00,
2013-12-05 03:55:00,40.5,37.5,30.25,West,281,2.0,2.0,89,0.00,,,0.00,VWS V13.01,2013-12-05 02:55:00,
2013-12-05 03:56:00,40.5,37.5,30.25,West,281,2.0,2.0,89,0.00,,,0.00,VWS V13.01,2013-12-05 02:56:00,
2013-12-05 03:58:00,40.5,37.5,30.25,West,281,2.0,2.0,89,0.00,,,0.00,VWS V13.01,2013-12-05 02:58:00,
2013-12-05 03:59:00,40.5,37.5,30.25,West,281,2.0,2.0,89,0.00,,,0.00,VWS V13.01,2013-12-05 02:59:00,
2013-12-05 04:00:00,40.5,37.5,30.25,West,281,2.0,2.0,89,0.00,,,0.00,VWS V13.01,2013-12-05 03:00:00,
2013-12-05 04:01:00,40.5,37.5,30.25,West,281,2.0,2.0,89,0.00,,,0.00,VWS V13.01,2013-12-05 03:01:00,
2013-12-05 04:03:00,40.5,37.5,30.25,West,281,2.0,2.0,89,0.00,,,0.00,VWS V13.01,2013-12-05 03:03:00,
2013-12-05 04:04:00,40.5,37.5,30.25,West,281,2.0,2.0,89,0.00,,,0.00,VWS V13.01,2013-12-05 03:04:00,
2013-12-05 04:05:00,40.5,37.5,30.25,West,281,2.0,2.0,89,0.00,,,0.00,VWS V13.01,2013-12-05 03:05:00,
2013-12-05 04:06:00,40.5,37.5,30.25,West,281,2.0,2.0,89,0.00,,,0.00,VWS V13.01,2013-12-05 03:06:00,
2013-12-05 04:08:00,40.5,37.5,30.25,West,281,2.0,2.0,89,0.00,,,0.00,VWS V13.01,2013-12-05 03:08:00,
2013-12-05 04:09:00,40.5,37.5,30.25,West,281,2.0,2.0,89,0.00,,,0.00,VWS V13.01,2013-12-05 03:09:00,
2013-12-05 04:10:00,40.5,37.5,30.25,West,281,2.0,2.0,89,0.00,,,0.00,VWS V13.01,2013-12-05 03:10:00,
2013-12-05 04:11:00,40.5,37.5,30.25,West,281,2.0,2.0,89,0.00,,,0.00,VWS V13.01,2013-12-05 03:11:00,
2013-12-05 04:13:00,40.5,37.5,30.25,West,281,2.0,2.0,89,0.00,,,0.00,VWS V13.01,2013-12-05 03:13:00,
2013-12-05 04:14:00,40.5,37.5,30.25,West,281,2.0,2.0,89,0.00,,,0.00,VWS V13.01,2013-12-05 03:14:00,
2013-12-05 04:15:00,40.5,37.5,30.24,West,281,2.0,2.0,89,0.00,,,0.00,VWS V13.01,2013-12-05 03:15:00,
2013-12-05 04:16:00,40.5,37.5,30.24,West,281,2.0,2.0,89,0.00,,,0.00,VWS V13.01,2013-12-05 03:16:00,
2013-12-05 04:18:00,40.5,37.5,30.24,West,281,2.0,2.0,89,0.00,,,0.00,VWS V13.01,2013-12-05 03:18:00,
2013-12-05 04:19:00,40.5,37.5,30.24,West,281,2.0,2.0,89,0.00,,,0.00,VWS V13.01,2013-12-05 03:19:00,
2013-12-05 04:20:00,40.5,37.5,30.24,West,281,2.0,2.0,89,0.00,,,0.00,VWS V13.01,2013-12-05 03:20:00,
2013-12-05 04:21:00,40.5,37.5,30.24,West,281,2.0,2.0,89,0.00,,,0.00,VWS V13.01,2013-12-05 03:21:00,
2013-12-05 04:23:00,40.5,37.5,30.24,West,281,2.0,2.0,89,0.00,,,0.00,VWS V13.01,2013-12-05 03:23:00,
2013-12-05 04:24:00,40.5,37.5,30.24,West,281,2.0,2.0,89,0.00,,,0.00,VWS V13.01,2013-12-05 03:24:00,
2013-12-05 04:25:00,40.5,37.5,30.24,West,281,2.0,2.0,89,0.00,,,0.00,VWS V13.01,2013-12-05 03:25:00,
2013-12-05 04:26:00,40.5,37.5,30.24,West,281,2.0,2.0,89,0.00,,,0.00,VWS V13.01,2013-12-05 03:26:00,
2013-12-05 04:28:00,40.5,37.5,30.24,West,281,2.0,2.0,89,0.00,,,0.00,VWS V13.01,2013-12-05 03:28:00,
2013-12-05 04:29:00,40.5,37.5,30.24,West,281,2.0,2.0,89,0.00,,,0.00,VWS V13.01,2013-12-05 03:29:00,
2013-12-05 04:30:00,40.5,37.5,30.24,West,281,2.0,2.0,89,0.00,,,0.00,VWS V13.01,2013-12-05 03:30:00,
2013-12-05 04:31:00,40.5,37.5,30.24,West,281,2.0,2.0,89,0.00,,,0.00,VWS V13.01,2013-12-05 03:31:00,
2013-12-05 04:33:00,40.5,37.5,30.23,West,281,2.0,2.0,89,0.00,,,0.00,VWS V13.01,2013-12-05 03:33:00,
2013-12-05 04:34:00,40.5,37.5,30.23,West,281,2.0,2.0,89,0.00,,,0.00,VWS V13.01,2013-12-05 03:34:00,
2013-12-05 04:35:00,40.5,37.5,30.23,West,281,2.0,2.0,89,0.00,,,0.00,VWS V13.01,2013-12-05 03:35:00,
2013-12-05 04:36:00,40.5,37.5,30.23,West,281,2.0,2.0,89,0.00,,,0.00,VWS V13.01,2013-12-05 03:36:00,
2013-12-05 04:39:00,40.5,37.5,30.23,West,281,2.0,2.0,89,0.00,,,0.00,VWS V13.01,2013-12-05 03:39:00,
2013-12-05 04:40:00,40.5,37.5,30.23,West,281,2.0,2.0,89,0.00,,,0.00,VWS V13.01,2013-12-05 03:40:00,
2013-12-05 04:41:00,40.5,37.5,30.23,West,281,2.0,2.0,89,0.00,,,0.00,VWS V13.01,2013-12-05 03:41:00,
2013-12-05 04:44:00,40.5,37.5,30.23,West,281,2.0,2.0,89,0.00,,,0.00,VWS V13.01,2013-12-05 03:44:00,
2013-12-05 04:45:00,40.5,37.5,30.22,West,281,2.0,2.0,89,0.00,,,0.00,VWS V13.01,2013-12-05 03:45:00,
2013-12-05 04:46:00,40.5,37.5,30.22,West,281,2.0,2.0,89,0.00,,,0.00,VWS V13.01,2013-12-05 03:46:00,
2013-12-05 04:47:00,40.5,37.5,30.22,West,281,2.0,2.0,89,0.00,,,0.00,VWS V13.01,2013-12-05 03:47:00,
2013-12-05 04:49:00,40.5,37.5,30.22,West,281,2.0,2.0,89,0.00,,,0.00,VWS V13.01,2013-12-05 03:49:00,
2013-12-05 04:50:00,40.5,37.5,30.22,West,281,2.0,2.0,89,0.00,,,0.00,VWS V13.01,2013-12-05 03:50:00,
2013-12-05 04:51:00,40.5,37.5,30.22,West,281,2.0,2.0,89,0.00,,,0.00,VWS V13.01,2013-12-05 03:51:00,
2013-12-05 04:52:00,40.5,37.5,30.22,West,281,2.0,2.0,89,0.00,,,0.00,VWS V13.01,2013-12-05 03:52:00,
2013-12-05 04:54:00,40.5,37.5,30.22,West,281,2.0,2.0,89,0.00,,,0.00,VWS V13.01,2013-12-05 03:54:00,
2013-12-05 04:56:00,40.5,37.5,30.22,West,281,2.0,2.0,89,0.00,,,0.00,VWS V13.01,2013-12-05 03:56:00,
2013-12-05 04:57:00,40.5,37.5,30.22,West,281,2.0,2.0,89,0.00,,,0.00,VWS V13.01,2013-12-05 03:57:00,
2013-12-05 04:59:00,40.5,37.5,30.22,West,281,2.0,2.0,89,0.00,,,0.00,VWS V13.01,2013-12-05 03:59:00,
2013-12-05 05:01:00,40.5,37.5,30.22,West,281,2.0,2.0,89,0.00,,,0.00,VWS V13.01,2013-12-05 04:01:00,
2013-12-05 05:02:00,40.5,37.5,30.22,West,281,2.0,2.0,89,0.00,,,0.00,VWS V13.01,2013-12-05 04:02:00,
2013-12-05 05:04:00,40.5,37.5,30.22,West,281,2.0,2.0,89,0.00,,,0.00,VWS V13.01,2013-12-05 04:04:00,
2013-12-05 05:06:00,40.5,37.5,30.22,West,281,2.0,2.0,89,0.00,,,0.00,VWS V13.01,2013-12-05 04:06:00,
2013-12-05 05:07:00,40.5,37.5,30.22,West,281,2.0,2.0,89,0.00,,,0.00,VWS V13.01,2013-12-05 04:07:00,
2013-12-05 05:09:00,40.5,37.5,30.22,West,281,2.0,2.0,89,0.00,,,0.00,VWS V13.01,2013-12-05 04:09:00,
2013-12-05 05:11:00,40.5,37.5,30.22,West,281,2.0,2.0,89,0.00,,,0.00,VWS V13.01,2013-12-05 04:11:00,
2013-12-05 05:12:00,40.5,37.5,30.22,West,281,2.0,2.0,89,0.00,,,0.00,VWS V13.01,2013-12-05 04:12:00,
2013-12-05 05:14:00,40.5,37.5,30.22,West,281,2.0,2.0,89,0.00,,,0.00,VWS V13.01,2013-12-05 04:14:00,
2013-12-05 05:16:00,40.5,37.5,30.21,West,281,2.0,2.0,89,0.00,,,0.00,VWS V13.01,2013-12-05 04:16:00,
2013-12-05 05:17:00,40.5,37.5,30.21,West,281,2.0,2.0,89,0.00,,,0.00,VWS V13.01,2013-12-05 04:17:00,
2013-12-05 05:19:00,40.5,37.5,30.21,West,281,2.0,2.0,89,0.00,,,0.00,VWS V13.01,2013-12-05 04:19:00,
2013-12-05 05:21:00,40.5,37.5,30.21,West,281,2.0,2.0,89,0.00,,,0.00,VWS V13.01,2013-12-05 04:21:00,
2013-12-05 05:22:00,40.5,37.5,30.21,West,281,2.0,2.0,89,0.00,,,0.00,VWS V13.01,2013-12-05 04:22:00,
2013-12-05 05:24:00,40.5,37.5,30.21,West,281,2.0,2.0,89,0.00,,,0.00,VWS V13.01,2013-12-05 04:24:00,
2013-12-05 05:26:00,40.5,37.5,30.21,West,281,2.0,2.0,89,0.00,,,0.00,VWS V13.01,2013-12-05 04:26:00,
2013-12-05 05:27:00,40.5,37.5,30.21,West,281,2.0,2.0,89,0.00,,,0.00,VWS V13.01,2013-12-05 04:27:00,
2013-12-05 05:29:00,40.5,37.5,30.21,West,281,2.0,2.0,89,0.00,,,0.00,VWS V13.01,2013-12-05 04:29:00,
2013-12-05 05:32:00,40.5,37.5,30.20,West,281,2.0,2.0,89,0.00,,,0.00,VWS V13.01,2013-12-05 04:32:00,
2013-12-05 05:34:00,40.5,37.5,30.20,West,281,2.0,2.0,89,0.00,,,0.00,VWS V13.01,2013-12-05 04:34:00,
2013-12-05 05:35:00,40.5,37.5,30.20,West,281,2.0,2.0,89,0.00,,,0.00,VWS V13.01,2013-12-05 04:35:00,
2013-12-05 05:37:00,40.5,37.5,30.20,West,281,2.0,2.0,89,0.00,,,0.00,VWS V13.01,2013-12-05 04:37:00,
2013-12-05 05:39:00,40.5,37.5,30.20,West,281,2.0,2.0,89,0.00,,,0.00,VWS V13.01,2013-12-05 04:39:00,
2013-12-05 05:40:00,40.5,37.5,30.20,West,281,2.0,2.0,89,0.00,,,0.00,VWS V13.01,2013-12-05 04:40:00,
2013-12-05 05:42:00,40.5,37.5,30.20,West,281,2.0,2.0,89,0.00,,,0.00,VWS V13.01,2013-12-05 04:42:00,
2013-12-05 05:44:00,40.5,37.5,30.20,West,281,2.0,2.0,89,0.00,,,0.00,VWS V13.01,2013-12-05 04:44:00,
2013-12-05 05:45:00,40.5,37.5,30.18,West,281,2.0,2.0,89,0.00,,,0.00,VWS V13.01,2013-12-05 04:45:00,
2013-12-05 05:47:00,40.5,37.5,30.18,West,281,2.0,2.0,89,0.00,,,0.00,VWS V13.01,2013-12-05 04:47:00,
2013-12-05 05:49:00,40.5,37.5,30.18,West,281,2.0,2.0,89,0.00,,,0.00,VWS V13.01,2013-12-05 04:49:00,
2013-12-05 05:50:00,40.5,37.5,30.18,West,281,2.0,2.0,89,0.00,,,0.00,VWS V13.01,2013-12-05 04:50:00,
2013-12-05 05:52:00,40.5,37.5,30.18,West,281,2.0,2.0,89,0.00,,,0.00,VWS V13.01,2013-12-05 04:52:00,
2013-12-05 05:53:00,40.5,37.5,30.18,West,281,2.0,2.0,89,0.00,,,0.00,VWS V13.01,2013-12-05 04:53:00,
2013-12-05 05:54:00,40.5,37.5,30.18,West,281,2.0,2.0,89,0.00,,,0.00,VWS V13.01,2013-12-05 04:54:00,
2013-12-05 05:55:00,40.5,37.5,30.18,West,281,2.0,2.0,89,0.00,,,0.00,VWS V13.01,2013-12-05 04:55:00,
2013-12-05 05:57:00,40.5,37.5,30.18,West,281,2.0,2.0,89,0.00,,,0.00,VWS V13.01,2013-12-05 04:57:00,
2013-12-05 05:58:00,40.5,37.5,30.18,West,281,2.0,2.0,89,0.00,,,0.00,VWS V13.01,2013-12-05 04:58:00,
2013-12-05 05:59:00,40.5,37.5,30.18,West,281,2.0,2.0,89,0.00,,,0.00,VWS V13.01,2013-12-05 04:59:00,
2013-12-05 06:01:00,40.5,37.5,30.18,West,281,2.0,2.0,89,0.00,,,0.00,VWS V13.01,2013-12-05 05:01:00,
2013-12-05 06:02:00,40.5,37.5,30.18,West,281,2.0,2.0,89,0.00,,,0.00,VWS V13.01,2013-12-05 05:02:00,
2013-12-05 06:06:00,40.5,37.5,30.18,West,281,2.0,2.0,89,0.00,,,0.00,VWS V13.01,2013-12-05 05:06:00,
2013-12-05 06:07:00,40.5,37.5,30.18,West,281,2.0,2.0,89,0.00,,,0.00,VWS V13.01,2013-12-05 05:07:00,
2013-12-05 06:08:00,40.5,37.5,30.18,West,281,2.0,2.0,89,0.00,,,0.00,VWS V13.01,2013-12-05 05:08:00,
2013-12-05 06:11:00,40.5,37.5,30.18,West,281,2.0,2.0,89,0.00,,,0.00,VWS V13.01,2013-12-05 05:11:00,
2013-12-05 06:12:00,40.5,37.5,30.18,West,281,2.0,2.0,89,0.00,,,0.00,VWS V13.01,2013-12-05 05:12:00,
2013-12-05 06:13:00,40.5,37.5,30.18,West,281,2.0,2.0,89,0.00,,,0.00,VWS V13.01,2013-12-05 05:13:00,
2013-12-05 06:16:00,40.5,37.5,30.17,West,281,2.0,2.0,89,0.00,,,0.00,VWS V13.01,2013-12-05 05:16:00,
2013-12-05 06:18:00,40.5,37.5,30.17,West,281,2.0,2.0,89,0.00,,,0.00,VWS V13.01,2013-12-05 05:18:00,
2013-12-05 06:21:00,40.5,37.5,30.17,West,281,2.0,2.0,89,0.00,,,0.00,VWS V13.01,2013-12-05 05:21:00,
2013-12-05 06:23:00,40.5,37.5,30.17,West,281,2.0,2.0,89,0.00,,,0.00,VWS V13.01,2013-12-05 05:23:00,
2013-12-05 06:26:00,40.5,37.5,30.17,West,281,2.0,2.0,89,0.00,,,0.00,VWS V13.01,2013-12-05 05:26:00,
2013-12-05 06:27:00,40.5,37.5,30.17,West,281,2.0,2.0,89,0.00,,,0.00,VWS V13.01,2013-12-05 05:27:00,
2013-12-05 06:28:00,40.5,37.5,30.17,West,281,2.0,2.0,89,0.00,,,0.00,VWS V13.01,2013-12-05 05:28:00,
2013-12-05 06:31:00,40.5,37.5,30.16,West,281,2.0,2.0,89,0.00,,,0.00,VWS V13.01,2013-12-05 05:31:00,
2013-12-05 06:32:00,40.5,37.5,30.16,West,281,2.0,2.0,89,0.00,,,0.00,VWS V13.01,2013-12-05 05:32:00,
2013-12-05 06:33:00,40.5,37.5,30.16,West,281,2.0,2.0,89,0.00,,,0.00,VWS V13.01,2013-12-05 05:33:00,
2013-12-05 06:36:00,40.5,37.5,30.16,West,281,2.0,2.0,89,0.00,,,0.00,VWS V13.01,2013-12-05 05:36:00,
2013-12-05 06:38:00,40.5,37.5,30.16,West,281,2.0,2.0,89,0.00,,,0.00,VWS V13.01,2013-12-05 05:38:00,
2013-12-05 06:41:00,40.5,37.5,30.16,West,281,2.0,2.0,89,0.00,,,0.00,VWS V13.01,2013-12-05 05:41:00,
2013-12-05 06:42:00,40.5,37.5,30.16,West,281,2.0,2.0,89,0.00,,,0.00,VWS V13.01,2013-12-05 05:42:00,
2013-12-05 06:43:00,40.5,37.5,30.16,West,281,2.0,2.0,89,0.00,,,0.00,VWS V13.01,2013-12-05 05:43:00,
2013-12-05 06:46:00,40.5,37.5,30.15,West,281,2.0,2.0,89,0.00,,,0.00,VWS V13.01,2013-12-05 05:46:00,
2013-12-05 06:47:00,40.5,37.5,30.15,West,281,2.0,2.0,89,0.00,,,0.00,VWS V13.01,2013-12-05 05:47:00,
2013-12-05 06:48:00,40.5,37.5,30.15,West,281,2.0,2.0,89,0.00,,,0.00,VWS V13.01,2013-12-05 05:48:00,
2013-12-05 06:51:00,40.5,37.5,30.15,West,281,2.0,2.0,89,0.00,,,0.00,VWS V13.01,2013-12-05 05:51:00,
2013-12-05 06:52:00,40.5,37.5,30.15,West,281,2.0,2.0,89,0.00,,,0.00,VWS V13.01,2013-12-05 05:52:00,
2013-12-05 06:53:00,40.5,37.5,30.15,West,281,2.0,2.0,89,0.00,,,0.00,VWS V13.01,2013-12-05 05:53:00,
2013-12-05 06:56:00,40.5,37.5,30.15,West,281,2.0,2.0,89,0.00,,,0.00,VWS V13.01,2013-12-05 05:56:00,
2013-12-05 06:57:00,40.5,37.5,30.15,West,281,2.0,2.0,89,0.00,,,0.00,VWS V13.01,2013-12-05 05:57:00,
2013-12-05 06:58:00,40.5,37.5,30.15,West,281,2.0,2.0,89,0.00,,,0.00,VWS V13.01,2013-12-05 05:58:00,
2013-12-05 06:59:00,40.5,37.5,30.15,West,281,2.0,2.0,89,0.00,,,0.00,VWS V13.01,2013-12-05 05:59:00,
2013-12-05 07:01:00,40.5,37.5,30.14,West,281,2.0,2.0,89,0.00,,,0.00,VWS V13.01,2013-12-05 06:01:00,
2013-12-05 07:02:00,40.5,37.5,30.14,West,281,2.0,2.0,89,0.00,,,0.00,VWS V13.01,2013-12-05 06:02:00,
2013-12-05 07:03:00,40.5,37.5,30.14,West,281,2.0,2.0,89,0.00,,,0.00,VWS V13.01,2013-12-05 06:03:00,
2013-12-05 07:04:00,40.5,37.5,30.14,West,281,2.0,2.0,89,0.00,,,0.00,VWS V13.01,2013-12-05 06:04:00,
2013-12-05 07:06:00,40.5,37.5,30.14,West,281,2.0,2.0,89,0.00,,,0.00,VWS V13.01,2013-12-05 06:06:00,
2013-12-05 07:07:00,40.5,37.5,30.14,West,281,2.0,2.0,89,0.00,,,0.00,VWS V13.01,2013-12-05 06:07:00,
2013-12-05 07:08:00,40.5,37.5,30.14,West,281,2.0,2.0,89,0.00,,,0.00,VWS V13.01,2013-12-05 06:08:00,
2013-12-05 07:09:00,40.5,37.5,30.14,West,281,2.0,2.0,89,0.00,,,0.00,VWS V13.01,2013-12-05 06:09:00,
2013-12-05 07:11:00,40.5,37.5,30.14,West,281,2.0,2.0,89,0.00,,,0.00,VWS V13.01,2013-12-05 06:11:00,
2013-12-05 07:12:00,40.5,37.5,30.14,West,281,2.0,2.0,89,0.00,,,0.00,VWS V13.01,2013-12-05 06:12:00,
2013-12-05 07:13:00,40.5,37.5,30.14,West,281,2.0,2.0,89,0.00,,,0.00,VWS V13.01,2013-12-05 06:13:00,
2013-12-05 07:14:00,40.5,37.5,30.14,West,281,2.0,2.0,89,0.00,,,0.00,VWS V13.01,2013-12-05 06:14:00,
2013-12-05 07:16:00,40.5,37.5,30.14,West,281,2.0,2.0,89,0.00,,,0.00,VWS V13.01,2013-12-05 06:16:00,
2013-12-05 07:17:00,40.5,37.5,30.14,West,281,2.0,2.0,89,0.00,,,0.00,VWS V13.01,2013-12-05 06:17:00,
2013-12-05 07:18:00,40.5,37.5,30.14,West,281,2.0,2.0,89,0.00,,,0.00,VWS V13.01,2013-12-05 06:18:00,
2013-12-05 07:19:00,40.5,37.5,30.14,West,281,2.0,2.0,89,0.00,,,0.00,VWS V13.01,2013-12-05 06:19:00,
2013-12-05 07:21:00,40.5,37.5,30.14,West,281,2.0,2.0,89,0.00,,,0.00,VWS V13.01,2013-12-05 06:21:00,
2013-12-05 07:22:00,40.5,37.5,30.14,West,281,2.0,2.0,89,0.00,,,0.00,VWS V13.01,2013-12-05 06:22:00,
2013-12-05 07:23:00,40.5,37.5,30.14,West,281,2.0,2.0,89,0.00,,,0.00,VWS V13.01,2013-12-05 06:23:00,
2013-12-05 07:24:00,40.5,37.5,30.14,West,281,2.0,2.0,89,0.00,,,0.00,VWS V13.01,2013-12-05 06:24:00,
2013-12-05 07:26:00,40.5,37.5,30.14,West,281,2.0,2.0,89,0.00,,,0.00,VWS V13.01,2013-12-05 06:26:00,
2013-12-05 07:27:00,40.5,37.5,30.14,West,281,2.0,2.0,89,0.00,,,0.00,VWS V13.01,2013-12-05 06:27:00,
2013-12-05 07:28:00,40.5,37.5,30.14,West,281,2.0,2.0,89,0.00,,,0.00,VWS V13.01,2013-12-05 06:28:00,
2013-12-05 07:29:00,40.5,37.5,30.14,West,281,2.0,2.0,89,0.00,,,0.00,VWS V13.01,2013-12-05 06:29:00,
2013-12-05 07:30:00,40.5,37.5,30.14,West,281,2.0,2.0,89,0.00,,,0.00,VWS V13.01,2013-12-05 06:30:00,
2013-12-05 07:31:00,40.5,37.5,30.13,West,281,2.0,2.0,89,0.00,,,0.00,VWS V13.01,2013-12-05 06:31:00,
2013-12-05 07:32:00,40.5,37.5,30.13,West,281,2.0,2.0,89,0.00,,,0.00,VWS V13.01,2013-12-05 06:32:00,
2013-12-05 07:33:00,40.5,37.5,30.13,West,281,2.0,2.0,89,0.00,,,0.00,VWS V13.01,2013-12-05 06:33:00,
2013-12-05 07:34:00,40.5,37.5,30.13,West,281,2.0,2.0,89,0.00,,,0.00,VWS V13.01,2013-12-05 06:34:00,
2013-12-05 07:35:00,40.5,37.5,30.13,West,281,2.0,2.0,89,0.00,,,0.00,VWS V13.01,2013-12-05 06:35:00,
2013-12-05 07:36:00,40.5,37.5,30.13,West,281,2.0,2.0,89,0.00,,,0.00,VWS V13.01,2013-12-05 06:36:00,
2013-12-05 07:37:00,40.5,37.5,30.13,West,281,2.0,2.0,89,0.00,,,0.00,VWS V13.01,2013-12-05 06:37:00,
2013-12-05 07:39:00,40.5,37.5,30.13,West,281,2.0,2.0,89,0.00,,,0.00,VWS V13.01,2013-12-05 06:39:00,
2013-12-05 07:40:00,40.5,37.5,30.13,West,281,2.0,2.0,89,0.00,,,0.00,VWS V13.01,2013-12-05 06:40:00,
2013-12-05 07:42:00,40.5,37.5,30.13,West,281,2.0,2.0,89,0.00,,,0.00,VWS V13.01,2013-12-05 06:42:00,
2013-12-05 07:44:00,40.5,37.5,30.13,West,281,2.0,2.0,89,0.00,,,0.00,VWS V13.01,2013-12-05 06:44:00,
2013-12-05 07:45:00,40.5,37.5,30.11,West,281,2.0,2.0,89,0.00,,,0.00,VWS V13.01,2013-12-05 06:45:00,
2013-12-05 07:47:00,40.5,37.5,30.11,West,281,2.0,2.0,89,0.00,,,0.00,VWS V13.01,2013-12-05 06:47:00,
2013-12-05 07:49:00,40.5,37.5,30.11,West,281,2.0,2.0,89,0.00,,,0.00,VWS V13.01,2013-12-05 06:49:00,
2013-12-05 07:50:00,40.5,37.5,30.11,West,281,2.0,2.0,89,0.00,,,0.00,VWS V13.01,2013-12-05 06:50:00,
2013-12-05 07:51:00,40.5,37.5,30.11,West,281,2.0,2.0,89,0.00,,,0.00,VWS V13.01,2013-12-05 06:51:00,
2013-12-05 07:52:00,40.5,37.5,30.11,West,281,2.0,2.0,89,0.00,,,0.00,VWS V13.01,2013-12-05 06:52:00,
2013-12-05 07:54:00,40.5,37.5,30.11,West,281,2.0,2.0,89,0.00,,,0.00,VWS V13.01,2013-12-05 06:54:00,
2013-12-05 07:55:00,40.5,37.5,30.11,West,281,2.0,2.0,89,0.00,,,0.00,VWS V13.01,2013-12-05 06:55:00,
2013-12-05 07:56:00,40.5,37.5,30.11,West,281,2.0,2.0,89,0.00,,,0.00,VWS V13.01,2013-12-05 06:56:00,
2013-12-05 07:57:00,40.5,37.5,30.11,West,281,2.0,2.0,89,0.00,,,0.00,VWS V13.01,2013-12-05 06:57:00,
2013-12-05 07:58:00,40.5,37.5,30.11,West,281,2.0,2.0,89,0.00,,,0.00,VWS V13.01,2013-12-05 06:58:00,
2013-12-05 07:59:00,40.5,37.5,30.11,West,281,2.0,2.0,89,0.00,,,0.00,VWS V13.01,2013-12-05 06:59:00,
2013-12-05 08:00:00,40.5,37.5,30.11,West,281,2.0,2.0,89,0.00,,,0.00,VWS V13.01,2013-12-05 07:00:00,
2013-12-05 08:01:00,40.5,37.5,30.11,West,281,2.0,2.0,89,0.00,,,0.00,VWS V13.01,2013-12-05 07:01:00,
2013-12-05 08:02:00,40.5,37.5,30.11,West,281,2.0,2.0,89,0.00,,,0.00,VWS V13.01,2013-12-05 07:02:00,
2013-12-05 08:03:00,40.5,37.5,30.11,West,281,2.0,2.0,89,0.00,,,0.00,VWS V13.01,2013-12-05 07:03:00,
2013-12-05 08:04:00,40.5,37.5,30.11,West,281,2.0,2.0,89,0.00,,,0.00,VWS V13.01,2013-12-05 07:04:00,
2013-12-05 08:05:00,40.5,37.5,30.11,West,281,2.0,2.0,89,0.00,,,0.00,VWS V13.01,2013-12-05 07:05:00,
2013-12-05 08:06:00,40.5,37.5,30.11,West,281,2.0,2.0,89,0.00,,,0.00,VWS V13.01,2013-12-05 07:06:00,
2013-12-05 08:07:00,40.5,37.5,30.11,West,281,2.0,2.0,89,0.00,,,0.00,VWS V13.01,2013-12-05 07:07:00,
2013-12-05 08:08:00,40.5,37.5,30.11,West,281,2.0,2.0,89,0.00,,,0.00,VWS V13.01,2013-12-05 07:08:00,
2013-12-05 08:09:00,40.5,37.5,30.11,West,281,2.0,2.0,89,0.00,,,0.00,VWS V13.01,2013-12-05 07:09:00,
2013-12-05 08:10:00,40.5,37.5,30.11,West,281,2.0,2.0,89,0.00,,,0.00,VWS V13.01,2013-12-05 07:10:00,
2013-12-05 08:11:00,40.5,37.5,30.11,West,281,2.0,2.0,89,0.00,,,0.00,VWS V13.01,2013-12-05 07:11:00,
2013-12-05 08:12:00,40.5,37.5,30.11,West,281,2.0,2.0,89,0.00,,,0.00,VWS V13.01,2013-12-05 07:12:00,
2013-12-05 08:13:00,40.5,37.5,30.11,West,281,2.0,2.0,89,0.00,,,0.00,VWS V13.01,2013-12-05 07:13:00,
2013-12-05 08:14:00,40.5,37.5,30.11,West,281,2.0,2.0,89,0.00,,,0.00,VWS V13.01,2013-12-05 07:14:00,
2013-12-05 08:15:00,40.5,37.5,30.09,West,281,2.0,2.0,89,0.00,,,0.00,VWS V13.01,2013-12-05 07:15:00,
2013-12-05 08:16:00,40.5,37.5,30.09,West,281,2.0,2.0,89,0.00,,,0.00,VWS V13.01,2013-12-05 07:16:00,
2013-12-05 08:17:00,40.5,37.5,30.09,West,281,2.0,2.0,89,0.00,,,0.00,VWS V13.01,2013-12-05 07:17:00,
2013-12-05 08:18:00,40.5,37.5,30.09,West,281,2.0,2.0,89,0.00,,,0.00,VWS V13.01,2013-12-05 07:18:00,
2013-12-05 08:20:00,40.5,37.5,30.09,West,281,2.0,2.0,89,0.00,,,0.00,VWS V13.01,2013-12-05 07:20:00,
2013-12-05 08:21:00,40.5,37.5,30.09,West,281,2.0,2.0,89,0.00,,,0.00,VWS V13.01,2013-12-05 07:21:00,
2013-12-05 08:22:00,40.5,37.5,30.09,West,281,2.0,2.0,89,0.00,,,0.00,VWS V13.01,2013-12-05 07:22:00,
2013-12-05 08:23:00,40.5,37.5,30.09,West,281,2.0,2.0,89,0.00,,,0.00,VWS V13.01,2013-12-05 07:23:00,
2013-12-05 08:25:00,40.5,37.5,30.09,West,281,2.0,2.0,89,0.00,,,0.00,VWS V13.01,2013-12-05 07:25:00,
2013-12-05 08:26:00,40.5,37.5,30.09,West,281,2.0,2.0,89,0.00,,,0.00,VWS V13.01,2013-12-05 07:26:00,
2013-12-05 08:27:00,40.5,37.5,30.09,West,281,2.0,2.0,89,0.00,,,0.00,VWS V13.01,2013-12-05 07:27:00,
2013-12-05 08:28:00,40.5,37.5,30.09,West,281,2.0,2.0,89,0.00,,,0.00,VWS V13.01,2013-12-05 07:28:00,
2013-12-05 08:30:00,40.5,37.5,30.07,West,281,2.0,2.0,89,0.00,,,0.00,VWS V13.01,2013-12-05 07:30:00,
2013-12-05 08:31:00,40.5,37.5,30.07,West,281,2.0,2.0,89,0.00,,,0.00,VWS V13.01,2013-12-05 07:31:00,
2013-12-05 08:32:00,40.5,37.5,30.07,West,281,2.0,2.0,89,0.00,,,0.00,VWS V13.01,2013-12-05 07:32:00,
2013-12-05 08:34:00,40.5,37.5,30.07,West,281,2.0,2.0,89,0.00,,,0.00,VWS V13.01,2013-12-05 07:34:00,
2013-12-05 08:35:00,40.5,37.5,30.07,West,281,2.0,2.0,89,0.00,,,0.00,VWS V13.01,2013-12-05 07:35:00,
2013-12-05 08:36:00,40.5,37.5,30.07,West,281,2.0,2.0,89,0.00,,,0.00,VWS V13.01,2013-12-05 07:36:00,
2013-12-05 08:37:00,40.5,37.5,30.07,West,281,2.0,2.0,89,0.00,,,0.00,VWS V13.01,2013-12-05 07:37:00,
2013-12-05 08:39:00,40.5,37.5,30.07,West,281,2.0,2.0,89,0.00,,,0.00,VWS V13.01,2013-12-05 07:39:00,
2013-12-05 08:40:00,40.5,37.5,30.07,West,281,2.0,2.0,89,0.00,,,0.00,VWS V13.01,2013-12-05 07:40:00,
2013-12-05 08:41:00,40.5,37.5,30.07,West,281,2.0,2.0,89,0.00,,,0.00,VWS V13.01,2013-12-05 07:41:00,
2013-12-05 08:42:00,40.5,37.5,30.07,West,281,2.0,2.0,89,0.00,,,0.00,VWS V13.01,2013-12-05 07:42:00,
2013-12-05 08:44:00,40.5,37.5,30.07,West,281,2.0,2.0,89,0.00,,,0.00,VWS V13.01,2013-12-05 07:44:00,
2013-12-05 08:45:00,40.5,37.5,30.07,West,281,2.0,2.0,89,0.00,,,0.00,VWS V13.01,2013-12-05 07:45:00,
2013-12-05 08:46:00,40.5,37.5,30.07,West,281,2.0,2.0,89,0.00,,,0.00,VWS V13.01,2013-12-05 07:46:00,
2013-12-05 08:47:00,40.5,37.5,30.07,West,281,2.0,2.0,89,0.00,,,0.00,VWS V13.01,2013-12-05 07:47:00,
2013-12-05 08:49:00,40.5,37.5,30.07,West,281,2.0,2.0,89,0.00,,,0.00,VWS V13.01,2013-12-05 07:49:00,
2013-12-05 08:50:00,40.5,37.5,30.07,West,281,2.0,2.0,89,0.00,,,0.00,VWS V13.01,2013-12-05 07:50:00,
2013-12-05 08:51:00,40.5,37.5,30.07,West,281,2.0,2.0,89,0.00,,,0.00,VWS V13.01,2013-12-05 07:51:00,
2013-12-05 08:52:00,40.5,37.5,30.07,West,281,2.0,2.0,89,0.00,,,0.00,VWS V13.01,2013-12-05 07:52:00,
2013-12-05 08:54:00,40.5,37.5,30.07,West,281,2.0,2.0,89,0.00,,,0.00,VWS V13.01,2013-12-05 07:54:00,
2013-12-05 08:55:00,40.5,37.5,30.07,West,281,2.0,2.0,89,0.00,,,0.00,VWS V13.01,2013-12-05 07:55:00,
2013-12-05 08:56:00,40.5,37.5,30.07,West,281,2.0,2.0,89,0.00,,,0.00,VWS V13.01,2013-12-05 07:56:00,
2013-12-05 08:57:00,40.5,37.5,30.07,West,281,2.0,2.0,89,0.00,,,0.00,VWS V13.01,2013-12-05 07:57:00,
2013-12-05 08:59:00,40.5,37.5,30.07,West,281,2.0,2.0,89,0.00,,,0.00,VWS V13.01,2013-12-05 07:59:00,
2013-12-05 09:01:00,40.5,37.5,30.07,West,281,2.0,2.0,89,0.00,,,0.00,VWS V13.01,2013-12-05 08:01:00,
2013-12-05 09:02:00,40.5,37.5,30.07,West,281,2.0,2.0,89,0.00,,,0.00,VWS V13.01,2013-12-05 08:02:00,
2013-12-05 09:04:00,40.5,37.5,30.07,West,281,2.0,2.0,89,0.00,,,0.00,VWS V13.01,2013-12-05 08:04:00,
2013-12-05 09:06:00,40.5,37.5,30.07,West,281,2.0,2.0,89,0.00,,,0.00,VWS V13.01,2013-12-05 08:06:00,
2013-12-05 09:07:00,40.5,37.5,30.07,West,281,2.0,2.0,89,0.00,,,0.00,VWS V13.01,2013-12-05 08:07:00,
2013-12-05 09:09:00,40.5,37.5,30.07,West,281,2.0,2.0,89,0.00,,,0.00,VWS V13.01,2013-12-05 08:09:00,
2013-12-05 09:11:00,40.5,37.5,30.07,West,281,2.0,2.0,89,0.00,,,0.00,VWS V13.01,2013-12-05 08:11:00,
2013-12-05 09:12:00,40.5,37.5,30.07,West,281,2.0,2.0,89,0.00,,,0.00,VWS V13.01,2013-12-05 08:12:00,
2013-12-05 09:14:00,40.5,37.5,30.07,West,281,2.0,2.0,89,0.00,,,0.00,VWS V13.01,2013-12-05 08:14:00,
2013-12-05 09:16:00,40.5,37.5,30.06,West,281,2.0,2.0,89,0.00,,,0.00,VWS V13.01,2013-12-05 08:16:00,
2013-12-05 09:17:00,40.5,37.5,30.06,West,281,2.0,2.0,89,0.00,,,0.00,VWS V13.01,2013-12-05 08:17:00,
2013-12-05 09:18:00,40.5,37.5,30.06,West,281,2.0,2.0,89,0.00,,,0.00,VWS V13.01,2013-12-05 08:18:00,
2013-12-05 09:19:00,40.5,37.5,30.06,West,281,2.0,2.0,89,0.00,,,0.00,VWS V13.01,2013-12-05 08:19:00,
2013-12-05 09:22:00,40.5,37.5,30.06,West,281,2.0,2.0,89,0.00,,,0.00,VWS V13.01,2013-12-05 08:22:00,
2013-12-05 09:23:00,40.5,37.5,30.06,West,281,2.0,2.0,89,0.00,,,0.00,VWS V13.01,2013-12-05 08:23:00,
2013-12-05 09:24:00,40.5,37.5,30.06,West,281,2.0,2.0,89,0.00,,,0.00,VWS V13.01,2013-12-05 08:24:00,
2013-12-05 09:27:00,40.5,37.5,30.06,West,281,2.0,2.0,89,0.00,,,0.00,VWS V13.01,2013-12-05 08:27:00,
2013-12-05 09:28:00,40.5,37.5,30.06,West,281,2.0,2.0,89,0.00,,,0.00,VWS V13.01,2013-12-05 08:28:00,
2013-12-05 09:29:00,40.5,37.5,30.06,West,281,2.0,2.0,89,0.00,,,0.00,VWS V13.01,2013-12-05 08:29:00,
2013-12-05 09:32:00,40.5,37.5,30.05,West,281,2.0,2.0,89,0.00,,,0.00,VWS V13.01,2013-12-05 08:32:00,
2013-12-05 09:33:00,40.5,37.5,30.05,West,281,2.0,2.0,89,0.00,,,0.00,VWS V13.01,2013-12-05 08:33:00,
2013-12-05 09:34:00,40.5,37.5,30.05,West,281,2.0,2.0,89,0.00,,,0.00,VWS V13.01,2013-12-05 08:34:00,
2013-12-05 09:37:00,41.0,39.1,30.05,SW,214,14.0,17.0,93,0.00,,,0.00,VWS V13.01,2013-12-05 08:37:00,
2013-12-05 09:38:00,41.0,39.1,30.05,South,189,9.0,19.0,93,0.00,,,0.00,VWS V13.01,2013-12-05 08:38:00,
2013-12-05 09:39:00,41.0,39.1,30.05,SW,222,10.0,19.0,93,0.00,,,0.00,VWS V13.01,2013-12-05 08:39:00,
2013-12-05 09:42:00,41.0,39.1,30.05,SSW,208,10.0,17.0,93,0.00,,,0.00,VWS V13.01,2013-12-05 08:42:00,
2013-12-05 09:43:00,41.0,39.1,30.05,SSW,207,19.0,20.0,93,0.00,,,0.00,VWS V13.01,2013-12-05 08:43:00,
2013-12-05 09:44:00,41.0,39.1,30.05,SW,220,9.0,20.0,93,0.00,,,0.00,VWS V13.01,2013-12-05 08:44:00,
2013-12-05 09:47:00,41.0,39.1,30.05,SSW,196,7.0,18.0,93,0.00,,,0.00,VWS V13.01,2013-12-05 08:47:00,
2013-12-05 09:48:00,41.0,39.1,30.05,SSW,213,7.0,18.0,93,0.00,,,0.00,VWS V13.01,2013-12-05 08:48:00,
2013-12-05 09:49:00,40.9,39.0,30.05,SW,222,10.0,18.0,93,0.00,,,0.00,VWS V13.01,2013-12-05 08:49:00,
2013-12-05 09:52:00,41.0,39.1,30.05,SSW,205,7.0,17.0,93,0.00,,,0.00,VWS V13.01,2013-12-05 08:52:00,
2013-12-05 09:53:00,41.0,38.9,30.05,SSW,194,11.0,19.0,92,0.00,,,0.00,VWS V13.01,2013-12-05 08:53:00,
2013-12-05 09:54:00,41.0,40.5,30.05,South,184,11.0,22.0,98,0.00,,,0.00,VWS V13.01,2013-12-05 08:54:00,
2013-12-05 09:57:00,41.0,39.1,30.05,South,191,10.0,24.0,93,0.00,,,0.00,VWS V13.01,2013-12-05 08:57:00,
2013-12-05 09:58:00,41.1,39.2,30.05,SW,232,6.0,24.0,93,0.00,,,0.00,VWS V13.01,2013-12-05 08:58:00,
2013-12-05 10:00:00,41.1,39.0,30.05,WSW,240,16.0,24.0,92,0.00,,,0.00,VWS V13.01,2013-12-05 09:00:00,
2013-12-05 10:02:00,41.1,39.0,30.02,SSW,202,7.0,19.0,92,0.00,,,0.00,VWS V13.01,2013-12-05 09:02:00,
2013-12-05 10:03:00,41.1,39.0,30.02,WSW,237,22.0,22.0,92,0.00,,,0.00,VWS V13.01,2013-12-05 09:03:00,
2013-12-05 10:05:00,41.1,39.0,30.02,WSW,244,12.0,22.0,92,0.00,,,0.00,VWS V13.01,2013-12-05 09:05:00,
2013-12-05 10:07:00,41.2,39.1,30.02,SW,235,14.0,24.0,92,0.00,,,0.00,VWS V13.01,2013-12-05 09:07:00,
2013-12-05 10:08:00,41.2,39.1,30.02,SSW,213,18.0,24.0,92,0.00,,,0.00,VWS V13.01,2013-12-05 09:08:00,
2013-12-05 10:10:00,41.3,39.2,30.02,SSW,206,4.0,24.0,92,0.00,,,0.00,VWS V13.01,2013-12-05 09:10:00,
2013-12-05 10:12:00,41.3,39.2,30.02,WSW,238,13.0,13.0,92,0.00,,,0.00,VWS V13.01,2013-12-05 09:12:00,
2013-12-05 10:13:00,41.3,39.2,30.02,SW,221,11.0,13.0,92,0.00,,,0.00,VWS V13.01,2013-12-05 09:13:00,
2013-12-05 10:15:00,41.4,39.2,30.02,South,169,5.0,23.0,92,0.00,,,0.00,VWS V13.01,2013-12-05 09:15:00,
2013-12-05 10:18:00,41.4,39.0,30.00,South,171,6.0,19.0,91,0.00,,,0.00,VWS V13.01,2013-12-05 09:18:00,
2013-12-05 10:20:00,41.4,39.0,30.00,SW,220,12.0,19.0,91,0.00,,,0.00,VWS V13.01,2013-12-05 09:20:00,
2013-12-05 10:23:00,41.5,39.1,30.00,SW,227,18.0,18.0,91,0.00,,,0.00,VWS V13.01,2013-12-05 09:23:00,
2013-12-05 10:25:00,41.5,39.1,30.00,SSW,207,9.0,18.0,91,0.00,,,0.00,VWS V13.01,2013-12-05 09:25:00,
2013-12-05 10:28:00,41.6,39.2,30.00,South,176,10.0,19.0,91,0.00,,,0.00,VWS V13.01,2013-12-05 09:28:00,
2013-12-05 10:29:00,41.6,39.2,30.00,SSE,157,6.0,21.0,91,0.00,,,0.00,VWS V13.01,2013-12-05 09:29:00,
2013-12-05 10:30:00,41.6,39.2,29.98,SW,227,13.0,22.0,91,0.00,,,0.00,VWS V13.01,2013-12-05 09:30:00,
2013-12-05 10:33:00,41.6,39.2,29.98,SW,215,9.0,18.0,91,0.00,,,0.00,VWS V13.01,2013-12-05 09:33:00,
2013-12-05 10:34:00,41.7,39.3,29.98,SSW,205,11.0,18.0,91,0.00,,,0.00,VWS V13.01,2013-12-05 09:34:00,
2013-12-05 10:35:00,41.7,39.3,29.98,SSW,199,10.0,23.0,91,0.00,,,0.00,VWS V13.01,2013-12-05 09:35:00,
2013-12-05 10:38:00,41.8,39.4,29.98,SW,231,11.0,17.0,91,0.00,,,0.00,VWS V13.01,2013-12-05 09:38:00,
2013-12-05 10:39:00,41.8,39.4,29.98,SW,233,4.0,17.0,91,0.00,,,0.00,VWS V13.01,2013-12-05 09:39:00,
2013-12-05 10:40:00,41.8,39.4,29.98,South,178,9.0,19.0,91,0.00,,,0.00,VWS V13.01,2013-12-05 09:40:00,
2013-12-05 10:43:00,41.8,39.1,29.98,SSW,213,12.0,22.0,90,0.00,,,0.00,VWS V13.01,2013-12-05 09:43:00,
2013-12-05 10:44:00,41.9,39.2,29.98,WSW,237,16.0,22.0,90,0.00,,,0.00,VWS V13.01,2013-12-05 09:44:00,
2013-12-05 10:45:00,41.8,39.1,29.98,SSW,205,4.0,22.0,90,0.00,,,0.00,VWS V13.01,2013-12-05 09:45:00,
2013-12-05 10:48:00,41.9,39.2,29.98,WSW,249,10.0,22.0,90,0.00,,,0.00,VWS V13.01,2013-12-05 09:48:00,
2013-12-05 10:49:00,41.9,39.2,29.98,SW,234,16.0,22.0,90,0.00,,,0.00,VWS V13.01,2013-12-05 09:49:00,
2013-12-05 10:50:00,41.9,39.2,29.98,WSW,241,12.0,22.0,90,0.00,,,0.00,VWS V13.01,2013-12-05 09:50:00,
2013-12-05 10:53:00,41.9,39.2,29.98,South,184,11.0,21.0,90,0.00,,,0.00,VWS V13.01,2013-12-05 09:53:00,
2013-12-05 10:54:00,41.9,39.2,29.98,WSW,237,18.0,25.0,90,0.00,,,0.00,VWS V13.01,2013-12-05 09:54:00,
2013-12-05 10:55:00,42.0,39.3,29.98,SW,234,16.0,25.0,90,0.00,,,0.00,VWS V13.01,2013-12-05 09:55:00,
2013-12-05 10:58:00,42.0,39.3,29.98,SW,227,12.0,18.0,90,0.00,,,0.00,VWS V13.01,2013-12-05 09:58:00,
2013-12-05 10:59:00,42.0,39.3,29.98,SSW,210,12.0,18.0,90,0.00,,,0.00,VWS V13.01,2013-12-05 09:59:00,
2013-12-05 11:01:00,42.0,39.3,29.96,SSE,155,5.0,25.0,90,0.00,,,0.00,VWS V13.01,2013-12-05 10:01:00,
2013-12-05 11:03:00,42.0,39.0,29.96,West,259,19.0,26.0,89,0.00,,,0.00,VWS V13.01,2013-12-05 10:03:00,
2013-12-05 11:04:00,42.0,39.0,29.96,SW,229,14.0,26.0,89,0.00,,,0.00,VWS V13.01,2013-12-05 10:04:00,
2013-12-05 11:05:00,42.0,39.0,29.96,SW,218,12.0,26.0,89,0.00,,,0.00,VWS V13.01,2013-12-05 10:05:00,
2013-12-05 11:06:00,42.0,39.0,29.96,SW,232,14.0,26.0,89,0.00,,,0.00,VWS V13.01,2013-12-05 10:06:00,
2013-12-05 11:08:00,42.0,39.0,29.96,WSW,252,11.0,23.0,89,0.00,,,0.00,VWS V13.01,2013-12-05 10:08:00,
2013-12-05 11:10:00,42.0,39.0,29.96,SW,229,12.0,30.0,89,0.00,,,0.00,VWS V13.01,2013-12-05 10:10:00,
2013-12-05 11:11:00,42.0,39.0,29.96,WSW,254,21.0,30.0,89,0.00,,,0.00,VWS V13.01,2013-12-05 10:11:00,
2013-12-05 11:14:00,42.0,39.0,29.96,WSW,246,12.0,21.0,89,0.00,,,0.00,VWS V13.01,2013-12-05 10:14:00,
2013-12-05 11:15:00,42.0,39.0,29.96,SW,232,10.0,21.0,89,0.00,,,0.00,VWS V13.01,2013-12-05 10:15:00,
2013-12-05 11:16:00,41.9,38.9,29.95,SW,227,13.0,13.0,89,0.00,,,0.00,VWS V13.01,2013-12-05 10:16:00,
2013-12-05 11:19:00,41.9,38.9,29.95,SW,226,27.0,27.0,89,0.00,,,0.00,VWS V13.01,2013-12-05 10:19:00,
2013-12-05 11:20:00,41.9,38.9,29.95,SW,221,10.0,27.0,89,0.00,,,0.00,VWS V13.01,2013-12-05 10:20:00,
2013-12-05 11:21:00,41.9,38.9,29.95,South,175,9.0,12.0,89,0.00,,,0.00,VWS V13.01,2013-12-05 10:21:00,
2013-12-05 11:24:00,41.9,38.9,29.95,WSW,245,11.0,23.0,89,0.00,,,0.00,VWS V13.01,2013-12-05 10:24:00,
2013-12-05 11:25:00,41.8,38.8,29.95,SW,216,9.0,23.0,89,0.00,,,0.00,VWS V13.01,2013-12-05 10:25:00,
2013-12-05 11:26:00,41.8,38.8,29.95,WSW,240,10.0,13.0,89,0.00,,,0.00,VWS V13.01,2013-12-05 10:26:00,
2013-12-05 11:29:00,41.8,38.8,29.95,SW,233,18.0,19.0,89,0.00,,,0.00,VWS V13.01,2013-12-05 10:29:00,
2013-12-05 11:30:00,41.8,38.8,29.95,SW,218,7.0,19.0,89,0.00,,,0.00,VWS V13.01,2013-12-05 10:30:00,
2013-12-05 11:31:00,41.8,38.8,29.94,SW,230,15.0,19.0,89,0.00,,,0.00,VWS V13.01,2013-12-05 10:31:00,
2013-12-05 11:34:00,41.9,38.9,29.94,SW,214,9.0,24.0,89,0.00,,,0.00,VWS V13.01,2013-12-05 10:34:00,
2013-12-05 11:35:00,41.9,38.9,29.94,SW,235,9.0,24.0,89,0.00,,,0.00,VWS V13.01,2013-12-05 10:35:00,
2013-12-05 11:36:00,41.9,38.9,29.94,WSW,242,17.0,24.0,89,0.00,,,0.00,VWS V13.01,2013-12-05 10:36:00,
2013-12-05 11:39:00,41.9,38.9,29.94,SSW,210,12.0,28.0,89,0.00,,,0.00,VWS V13.01,2013-12-05 10:39:00,
2013-12-05 11:40:00,41.9,38.9,29.94,SW,223,23.0,28.0,89,0.00,,,0.00,VWS V13.01,2013-12-05 10:40:00,
2013-12-05 11:41:00,42.0,39.0,29.94,SSW,205,17.0,25.0,89,0.00,,,0.00,VWS V13.01,2013-12-05 10:41:00,
2013-12-05 11:44:00,42.0,38.7,29.94,SW,215,13.0,26.0,88,0.00,,,0.00,VWS V13.01,2013-12-05 10:44:00,
2013-12-05 11:45:00,42.1,38.8,29.92,WSW,237,19.0,26.0,88,0.00,,,0.00,VWS V13.01,2013-12-05 10:45:00,
2013-12-05 11:46:00,42.1,38.8,29.92,SSW,213,12.0,26.0,88,0.00,,,0.00,VWS V13.01,2013-12-05 10:46:00,
2013-12-05 11:49:00,42.1,38.8,29.92,SW,227,14.0,28.0,88,0.00,,,0.00,VWS V13.01,2013-12-05 10:49:00,
2013-12-05 11:50:00,42.2,38.9,29.92,WSW,241,18.0,28.0,88,0.00,,,0.00,VWS V13.01,2013-12-05 10:50:00,
2013-12-05 11:51:00,42.2,38.9,29.92,WSW,241,16.0,28.0,88,0.00,,,0.00,VWS V13.01,2013-12-05 10:51:00,
2013-12-05 11:54:00,42.2,38.9,29.92,SSW,210,21.0,26.0,88,0.00,,,0.00,VWS V13.01,2013-12-05 10:54:00,
2013-12-05 11:55:00,42.2,38.9,29.92,South,187,17.0,26.0,88,0.00,,,0.00,VWS V13.01,2013-12-05 10:55:00,
2013-12-05 11:56:00,42.2,38.9,29.92,SSW,209,12.0,26.0,88,0.00,,,0.00,VWS V13.01,2013-12-05 10:56:00,
2013-12-05 11:57:00,42.2,38.9,29.92,SW,223,6.0,17.0,88,0.00,,,0.00,VWS V13.01,2013-12-05 10:57:00,
2013-12-05 11:59:00,42.2,38.9,29.92,SW,234,21.0,26.0,88,0.00,,,0.00,VWS V13.01,2013-12-05 10:59:00,
2013-12-05 12:01:00,42.2,38.9,29.89,WSW,247,12.0,30.0,88,0.00,,,0.00,VWS V13.01,2013-12-05 11:01:00,
2013-12-05 12:02:00,42.2,38.9,29.89,WSW,240,25.0,26.0,88,0.00,,,0.00,VWS V13.01,2013-12-05 11:02:00,
2013-12-05 12:04:00,42.3,39.0,29.89,SSW,211,16.0,26.0,88,0.00,,,0.00,VWS V13.01,2013-12-05 11:04:00,
2013-12-05 12:06:00,42.3,39.0,29.89,South,183,13.0,26.0,88,0.00,,,0.00,VWS V13.01,2013-12-05 11:06:00,
2013-12-05 12:07:00,42.3,39.0,29.89,SW,232,19.0,27.0,88,0.00,,,0.00,VWS V13.01,2013-12-05 11:07:00,
2013-12-05 12:09:00,42.4,39.1,29.89,WSW,238,12.0,27.0,88,0.00,,,0.00,VWS V13.01,2013-12-05 11:09:00,
2013-12-05 12:11:00,42.4,39.1,29.89,SSW,198,7.0,27.0,88,0.00,,,0.00,VWS V13.01,2013-12-05 11:11:00,
2013-12-05 12:12:00,42.4,39.1,29.89,SE,129,15.0,22.0,88,0.00,,,0.00,VWS V13.01,2013-12-05 11:12:00,
2013-12-05 12:14:00,42.4,39.1,29.89,SW,230,13.0,22.0,88,0.00,,,0.00,VWS V13.01,2013-12-05 11:14:00,
2013-12-05 12:16:00,42.4,40.2,29.87,SSW,192,17.0,28.0,92,0.00,,,0.00,VWS V13.01,2013-12-05 11:16:00,
2013-12-05 12:17:00,42.5,39.2,29.87,SW,217,22.0,23.0,88,0.00,,,0.00,VWS V13.01,2013-12-05 11:17:00,
2013-12-05 12:19:00,42.5,39.2,29.87,SW,226,19.0,29.0,88,0.00,,,0.00,VWS V13.01,2013-12-05 11:19:00,
2013-12-05 12:21:00,42.5,39.2,29.87,SSW,207,6.0,29.0,88,0.00,,,0.00,VWS V13.01,2013-12-05 11:21:00,
2013-12-05 12:23:00,42.6,39.3,29.87,SSW,196,7.0,20.0,88,0.00,,,0.00,VWS V13.01,2013-12-05 11:23:00,
2013-12-05 12:24:00,42.6,39.3,29.87,SW,226,16.0,22.0,88,0.00,,,0.00,VWS V13.01,2013-12-05 11:24:00,
2013-12-05 12:26:00,42.7,39.4,29.87,SW,236,25.0,26.0,88,0.00,,,0.00,VWS V13.01,2013-12-05 11:26:00,
2013-12-05 12:27:00,42.7,39.4,29.87,SSW,206,16.0,25.0,88,0.00,,,0.00,VWS V13.01,2013-12-05 11:27:00,
2013-12-05 12:28:00,42.7,39.4,29.87,WSW,237,12.0,25.0,88,0.00,,,0.00,VWS V13.01,2013-12-05 11:28:00,
2013-12-05 12:29:00,42.7,39.4,29.87,SW,226,16.0,25.0,88,0.00,,,0.00,VWS V13.01,2013-12-05 11:29:00,
2013-12-05 12:31:00,42.8,39.5,29.85,SW,230,15.0,17.0,88,0.00,,,0.00,VWS V13.01,2013-12-05 11:31:00,
2013-12-05 12:32:00,42.8,39.5,29.85,WSW,245,17.0,27.0,88,0.00,,,0.00,VWS V13.01,2013-12-05 11:32:00,
2013-12-05 12:33:00,42.9,39.3,29.85,SW,217,17.0,27.0,87,0.00,,,0.00,VWS V13.01,2013-12-05 11:33:00,
2013-12-05 12:34:00,42.9,39.3,29.85,SSW,194,11.0,27.0,87,0.00,,,0.00,VWS V13.01,2013-12-05 11:34:00,
2013-12-05 12:36:00,42.9,39.3,29.85,SW,231,14.0,21.0,87,0.00,,,0.00,VWS V13.01,2013-12-05 11:36:00,
2013-12-05 12:37:00,43.0,39.4,29.85,SW,235,12.0,21.0,87,0.00,,,0.00,VWS V13.01,2013-12-05 11:37:00,
2013-12-05 12:38:00,43.0,39.4,29.85,SW,229,15.0,22.0,87,0.00,,,0.00,VWS V13.01,2013-12-05 11:38:00,
2013-12-05 12:39:00,43.0,39.4,29.85,SW,217,14.0,22.0,87,0.00,,,0.00,VWS V13.01,2013-12-05 11:39:00,
2013-12-05 12:41:00,43.0,39.4,29.85,East,101,10.0,32.0,87,0.00,,,0.00,VWS V13.01,2013-12-05 11:41:00,
2013-12-05 12:42:00,43.0,39.4,29.85,SSW,211,23.0,32.0,87,0.00,,,0.00,VWS V13.01,2013-12-05 11:42:00,
2013-12-05 12:43:00,43.0,39.4,29.85,SSW,211,20.0,32.0,87,0.00,,,0.00,VWS V13.01,2013-12-05 11:43:00,
2013-12-05 12:44:00,43.0,39.4,29.85,SW,215,6.0,32.0,87,0.00,,,0.00,VWS V13.01,2013-12-05 11:44:00,
2013-12-05 12:46:00,43.0,39.4,29.84,SW,228,14.0,23.0,87,0.00,,,0.00,VWS V13.01,2013-12-05 11:46:00,
2013-12-05 12:47:00,43.0,39.4,29.84,SW,225,13.0,23.0,87,0.00,,,0.00,VWS V13.01,2013-12-05 11:47:00,
2013-12-05 12:48:00,43.0,39.4,29.84,SSW,207,14.0,28.0,87,0.00,,,0.00,VWS V13.01,2013-12-05 11:48:00,
2013-12-05 12:49:00,43.1,39.5,29.84,WSW,242,15.0,28.0,87,0.00,,,0.00,VWS V13.01,2013-12-05 11:49:00,
2013-12-05 12:51:00,43.1,39.5,29.84,SW,216,9.0,30.0,87,0.00,,,0.00,VWS V13.01,2013-12-05 11:51:00,
2013-12-05 12:52:00,43.1,39.5,29.84,WSW,245,13.0,30.0,87,0.00,,,0.00,VWS V13.01,2013-12-05 11:52:00,
2013-12-05 12:53:00,43.1,39.8,29.84,SW,227,17.0,30.0,88,0.00,,,0.00,VWS V13.01,2013-12-05 11:53:00,
2013-12-05 12:54:00,43.1,39.8,29.84,WSW,240,12.0,30.0,88,0.00,,,0.00,VWS V13.01,2013-12-05 11:54:00,
2013-12-05 12:56:00,43.2,41.0,29.84,SW,221,10.0,22.0,92,0.00,,,0.00,VWS V13.01,2013-12-05 11:56:00,
2013-12-05 12:57:00,43.1,40.9,29.84,SW,216,27.0,27.0,92,0.00,,,0.00,VWS V13.01,2013-12-05 11:57:00,
2013-12-05 12:58:00,43.2,39.9,29.84,SW,236,20.0,27.0,88,0.00,,,0.00,VWS V13.01,2013-12-05 11:58:00,
2013-12-05 12:59:00,43.2,39.9,29.84,SSW,192,9.0,27.0,88,0.00,,,0.00,VWS V13.01,2013-12-05 11:59:00,
2013-12-05 13:00:00,43.2,39.9,29.84,SW,234,22.0,27.0,88,0.00,,,0.00,VWS V13.01,2013-12-05 12:00:00,
2013-12-05 13:01:00,43.3,40.0,29.83,SW,232,20.0,20.0,88,0.00,,,0.00,VWS V13.01,2013-12-05 12:01:00,
2013-12-05 13:02:00,43.3,40.0,29.83,SW,219,23.0,33.0,88,0.00,,,0.00,VWS V13.01,2013-12-05 12:02:00,
2013-12-05 13:03:00,43.3,40.0,29.83,SW,231,7.0,33.0,88,0.00,,,0.00,VWS V13.01,2013-12-05 12:03:00,
2013-12-05 13:05:00,43.4,40.1,29.83,SW,225,23.0,33.0,88,0.00,,,0.00,VWS V13.01,2013-12-05 12:05:00,
2013-12-05 13:06:00,43.5,40.2,29.83,WSW,239,19.0,19.0,88,0.00,,,0.00,VWS V13.01,2013-12-05 12:06:00,
2013-12-05 13:07:00,43.5,40.2,29.83,SW,228,11.0,20.0,88,0.00,,,0.00,VWS V13.01,2013-12-05 12:07:00,
2013-12-05 13:08:00,43.5,40.2,29.83,SW,236,23.0,28.0,88,0.00,,,0.00,VWS V13.01,2013-12-05 12:08:00,
2013-12-05 13:09:00,43.5,40.2,29.83,SW,236,12.0,28.0,88,0.00,,,0.00,VWS V13.01,2013-12-05 12:09:00,
2013-12-05 13:10:00,43.5,40.2,29.83,WSW,246,12.0,28.0,88,0.00,,,0.00,VWS V13.01,2013-12-05 12:10:00,
2013-12-05 13:11:00,43.6,40.3,29.83,WSW,246,22.0,33.0,88,0.00,,,0.00,VWS V13.01,2013-12-05 12:11:00,
2013-12-05 13:12:00,43.6,40.3,29.83,WSW,239,16.0,33.0,88,0.00,,,0.00,VWS V13.01,2013-12-05 12:12:00,
2013-12-05 13:13:00,43.7,40.4,29.83,SSW,205,20.0,33.0,88,0.00,,,0.00,VWS V13.01,2013-12-05 12:13:00,
2013-12-05 13:14:00,43.7,40.4,29.83,SW,225,20.0,33.0,88,0.00,,,0.00,VWS V13.01,2013-12-05 12:14:00,
2013-12-05 13:15:00,43.7,40.4,29.83,SW,221,17.0,33.0,88,0.00,,,0.00,VWS V13.01,2013-12-05 12:15:00,
2013-12-05 13:17:00,43.7,40.4,29.81,WSW,240,13.0,21.0,88,0.00,,,0.00,VWS V13.01,2013-12-05 12:17:00,
2013-12-05 13:18:00,43.8,40.5,29.81,WSW,238,12.0,22.0,88,0.00,,,0.01,VWS V13.01,2013-12-05 12:18:00,
2013-12-05 13:19:00,43.8,40.5,29.81,WSW,256,16.0,34.0,88,0.01,,,0.01,VWS V13.01,2013-12-05 12:19:00,
2013-12-05 13:20:00,43.8,40.5,29.81,SW,232,18.0,34.0,88,0.01,,,0.01,VWS V13.01,2013-12-05 12:20:00,
2013-12-05 13:22:00,43.8,40.8,29.81,SW,234,13.0,32.0,89,0.01,,,0.01,VWS V13.01,2013-12-05 12:22:00,
2013-12-05 13:23:00,43.9,40.9,29.81,WSW,246,16.0,32.0,89,0.01,,,0.01,VWS V13.01,2013-12-05 12:23:00,
2013-12-05 13:25:00,43.9,40.9,29.81,WSW,252,24.0,32.0,89,0.01,,,0.01,VWS V13.01,2013-12-05 12:25:00,
2013-12-05 13:27:00,44.0,41.0,29.81,WSW,242,20.0,32.0,89,0.02,,,0.02,VWS V13.01,2013-12-05 12:27:00,
2013-12-05 13:28:00,44.1,41.1,29.81,SW,232,11.0,32.0,89,0.02,,,0.02,VWS V13.01,2013-12-05 12:28:00,
2013-12-05 13:30:00,44.1,41.1,29.81,WSW,244,22.0,33.0,89,0.02,,,0.02,VWS V13.01,2013-12-05 12:30:00,
2013-12-05 13:32:00,44.1,41.1,29.79,WSW,257,23.0,29.0,89,0.02,,,0.02,VWS V13.01,2013-12-05 12:32:00,
2013-12-05 13:33:00,44.2,41.2,29.79,WSW,240,15.0,30.0,89,0.02,,,0.02,VWS V13.01,2013-12-05 12:33:00,
2013-12-05 13:35:00,44.2,41.2,29.79,SW,236,10.0,30.0,89,0.02,,,0.02,VWS V13.01,2013-12-05 12:35:00,
2013-12-05 13:37:00,44.2,41.2,29.79,SW,231,16.0,26.0,89,0.02,,,0.02,VWS V13.01,2013-12-05 12:37:00,
2013-12-05 13:38:00,44.2,41.2,29.79,SW,217,13.0,26.0,89,0.02,,,0.02,VWS V13.01,2013-12-05 12:38:00,
2013-12-05 13:40:00,44.2,41.2,29.79,WSW,257,21.0,26.0,89,0.02,,,0.02,VWS V13.01,2013-12-05 12:40:00,
2013-12-05 13:42:00,44.2,41.2,29.79,SW,234,17.0,19.0,89,0.02,,,0.02,VWS V13.01,2013-12-05 12:42:00,
2013-12-05 13:44:00,44.2,41.2,29.79,SSW,211,18.0,25.0,89,0.02,,,0.02,VWS V13.01,2013-12-05 12:44:00,
2013-12-05 13:45:00,44.3,41.6,29.78,WSW,244,21.0,25.0,90,0.02,,,0.02,VWS V13.01,2013-12-05 12:45:00,
2013-12-05 13:46:00,44.3,41.6,29.78,WSW,239,16.0,25.0,90,0.02,,,0.02,VWS V13.01,2013-12-05 12:46:00,
2013-12-05 13:47:00,44.3,41.6,29.78,SW,231,18.0,25.0,90,0.02,,,0.02,VWS V13.01,2013-12-05 12:47:00,
2013-12-05 13:48:00,44.3,41.6,29.78,WSW,241,15.0,27.0,90,0.02,,,0.02,VWS V13.01,2013-12-05 12:48:00,
2013-12-05 13:49:00,44.3,41.6,29.78,SSW,209,14.0,27.0,90,0.02,,,0.02,VWS V13.01,2013-12-05 12:49:00,
2013-12-05 13:50:00,44.4,41.4,29.78,SW,236,11.0,27.0,89,0.02,,,0.02,VWS V13.01,2013-12-05 12:50:00,
2013-12-05 13:51:00,44.4,41.4,29.78,SW,223,20.0,30.0,89,0.02,,,0.02,VWS V13.01,2013-12-05 12:51:00,
2013-12-05 13:52:00,44.4,41.4,29.78,WSW,248,19.0,22.0,89,0.02,,,0.02,VWS V13.01,2013-12-05 12:52:00,
2013-12-05 13:53:00,44.5,41.5,29.78,WSW,249,16.0,22.0,89,0.02,,,0.02,VWS V13.01,2013-12-05 12:53:00,
2013-12-05 13:54:00,44.5,41.5,29.78,WSW,240,12.0,22.0,89,0.02,,,0.02,VWS V13.01,2013-12-05 12:54:00,
2013-12-05 13:55:00,44.5,41.8,29.78,SW,234,23.0,25.0,90,0.02,,,0.02,VWS V13.01,2013-12-05 12:55:00,
2013-12-05 13:56:00,44.5,41.8,29.78,SW,228,12.0,25.0,90,0.02,,,0.02,VWS V13.01,2013-12-05 12:56:00,
2013-12-05 13:57:00,44.6,41.8,29.78,WSW,238,20.0,20.0,90,0.02,,,0.02,VWS V13.01,2013-12-05 12:57:00,
2013-12-05 13:58:00,44.6,41.8,29.78,SW,234,29.0,29.0,90,0.02,,,0.02,VWS V13.01,2013-12-05 12:58:00,
2013-12-05 13:59:00,44.6,41.8,29.78,SW,230,20.0,29.0,90,0.02,,,0.02,VWS V13.01,2013-12-05 12:59:00,
2013-12-05 14:00:00,44.7,42.0,29.76,SW,236,14.0,29.0,90,0.02,,,0.02,VWS V13.01,2013-12-05 13:00:00,
2013-12-05 14:01:00,44.8,42.0,29.76,SW,229,17.0,24.0,90,0.02,,,0.02,VWS V13.01,2013-12-05 13:01:00,
2013-12-05 14:02:00,45.0,42.2,29.76,West,260,18.0,33.0,90,0.02,,,0.02,VWS V13.01,2013-12-05 13:02:00,
2013-12-05 14:03:00,45.0,42.2,29.76,WSW,248,17.0,33.0,90,0.02,,,0.02,VWS V13.01,2013-12-05 13:03:00,
2013-12-05 14:04:00,45.1,42.3,29.76,WSW,252,22.0,33.0,90,0.02,,,0.02,VWS V13.01,2013-12-05 13:04:00,
2013-12-05 14:05:00,45.2,42.2,29.76,WSW,241,17.0,33.0,89,0.02,,,0.02,VWS V13.01,2013-12-05 13:05:00,
2013-12-05 14:06:00,45.3,42.3,29.76,SW,236,25.0,31.0,89,0.02,,,0.02,VWS V13.01,2013-12-05 13:06:00,
2013-12-05 14:07:00,45.5,42.5,29.76,WSW,242,28.0,31.0,89,0.02,,,0.02,VWS V13.01,2013-12-05 13:07:00,
2013-12-05 14:08:00,45.6,42.5,29.76,WSW,253,11.0,31.0,89,0.02,,,0.02,VWS V13.01,2013-12-05 13:08:00,
2013-12-05 14:09:00,45.7,42.7,29.76,WSW,252,25.0,31.0,89,0.02,,,0.02,VWS V13.01,2013-12-05 13:09:00,
2013-12-05 14:10:00,45.8,42.8,29.76,WSW,257,22.0,31.0,89,0.02,,,0.02,VWS V13.01,2013-12-05 13:10:00,
2013-12-05 14:11:00,45.8,42.5,29.76,WSW,246,25.0,31.0,88,0.02,,,0.02,VWS V13.01,2013-12-05 13:11:00,
2013-12-05 14:13:00,46.0,42.7,29.76,WSW,254,16.0,32.0,88,0.02,,,0.02,VWS V13.01,2013-12-05 13:13:00,
2013-12-05 14:14:00,46.2,42.5,29.76,West,276,19.0,32.0,87,0.02,,,0.02,VWS V13.01,2013-12-05 13:14:00,
2013-12-05 14:15:00,46.3,42.7,29.76,WSW,244,21.0,33.0,87,0.02,,,0.02,VWS V13.01,2013-12-05 13:15:00,
2013-12-05 14:16:00,46.3,42.7,29.76,SW,234,16.0,21.0,87,0.03,,,0.03,VWS V13.01,2013-12-05 13:16:00,
2013-12-05 14:18:00,46.4,42.8,29.76,WSW,247,19.0,31.0,87,0.03,,,0.03,VWS V13.01,2013-12-05 13:18:00,
2013-12-05 14:19:00,46.5,42.8,29.76,SW,223,20.0,31.0,87,0.03,,,0.03,VWS V13.01,2013-12-05 13:19:00,
2013-12-05 14:20:00,46.5,42.5,29.76,SW,225,21.0,31.0,86,0.03,,,0.03,VWS V13.01,2013-12-05 13:20:00,
2013-12-05 14:21:00,46.5,42.5,29.76,West,261,25.0,25.0,86,0.03,,,0.03,VWS V13.01,2013-12-05 13:21:00,
2013-12-05 14:23:00,46.6,42.6,29.76,West,265,22.0,33.0,86,0.02,,,0.03,VWS V13.01,2013-12-05 13:23:00,
2013-12-05 14:24:00,46.7,42.7,29.76,SW,219,20.0,33.0,86,0.02,,,0.03,VWS V13.01,2013-12-05 13:24:00,
2013-12-05 14:25:00,46.7,42.7,29.76,SW,225,22.0,33.0,86,0.02,,,0.03,VWS V13.01,2013-12-05 13:25:00,
2013-12-05 14:26:00,46.8,42.8,29.76,WSW,241,18.0,23.0,86,0.02,,,0.03,VWS V13.01,2013-12-05 13:26:00,
2013-12-05 14:28:00,46.8,42.8,29.76,WSW,240,23.0,29.0,86,0.02,,,0.03,VWS V13.01,2013-12-05 13:28:00,
2013-12-05 14:29:00,46.8,42.8,29.76,SW,234,17.0,31.0,86,0.02,,,0.03,VWS V13.01,2013-12-05 13:29:00,
2013-12-05 14:30:00,46.9,42.6,29.74,SW,227,24.0,31.0,85,0.02,,,0.03,VWS V13.01,2013-12-05 13:30:00,
2013-12-05 14:31:00,46.9,42.6,29.74,SW,236,20.0,31.0,85,0.02,,,0.03,VWS V13.01,2013-12-05 13:31:00,
2013-12-05 14:33:00,46.9,42.6,29.74,WSW,248,23.0,36.0,85,0.02,,,0.03,VWS V13.01,2013-12-05 13:33:00,
2013-12-05 14:34:00,46.9,42.6,29.74,WSW,250,27.0,36.0,85,0.02,,,0.04,VWS V13.01,2013-12-05 13:34:00,
2013-12-05 14:35:00,47.0,42.7,29.74,West,269,16.0,40.0,85,0.02,,,0.04,VWS V13.01,2013-12-05 13:35:00,
2013-12-05 14:36:00,47.0,42.7,29.74,South,183,13.0,40.0,85,0.02,,,0.04,VWS V13.01,2013-12-05 13:36:00,
2013-12-05 14:38:00,47.1,42.8,29.74,West,273,23.0,33.0,85,0.02,,,0.04,VWS V13.01,2013-12-05 13:38:00,
2013-12-05 14:39:00,47.1,42.8,29.74,SW,229,17.0,33.0,85,0.02,,,0.04,VWS V13.01,2013-12-05 13:39:00,
2013-12-05 14:40:00,47.1,42.8,29.74,WSW,244,17.0,36.0,85,0.02,,,0.04,VWS V13.01,2013-12-05 13:40:00,
2013-12-05 14:41:00,47.2,42.9,29.74,SW,236,23.0,36.0,85,0.02,,,0.04,VWS V13.01,2013-12-05 13:41:00,
2013-12-05 14:44:00,47.3,42.7,29.74,West,264,21.0,38.0,84,0.02,,,0.04,VWS V13.01,2013-12-05 13:44:00,
2013-12-05 14:45:00,47.3,42.7,29.72,SW,230,21.0,38.0,84,0.02,,,0.04,VWS V13.01,2013-12-05 13:45:00,
2013-12-05 14:46:00,47.3,42.7,29.72,WSW,238,19.0,38.0,84,0.02,,,0.04,VWS V13.01,2013-12-05 13:46:00,
2013-12-05 14:49:00,47.4,42.8,29.72,WSW,245,19.0,33.0,84,0.02,,,0.04,VWS V13.01,2013-12-05 13:49:00,
2013-12-05 14:50:00,47.4,42.8,29.72,WSW,253,24.0,33.0,84,0.02,,,0.04,VWS V13.01,2013-12-05 13:50:00,
2013-12-05 14:51:00,47.4,42.8,29.72,WSW,248,15.0,33.0,84,0.02,,,0.04,VWS V13.01,2013-12-05 13:51:00,
2013-12-05 14:54:00,47.5,42.9,29.72,WSW,246,25.0,26.0,84,0.02,,,0.04,VWS V13.01,2013-12-05 13:54:00,
2013-12-05 14:55:00,47.6,43.0,29.72,SSW,210,19.0,33.0,84,0.02,,,0.04,VWS V13.01,2013-12-05 13:55:00,
2013-12-05 14:56:00,47.6,43.0,29.72,WSW,245,21.0,33.0,84,0.02,,,0.04,VWS V13.01,2013-12-05 13:56:00,
2013-12-05 14:59:00,47.7,43.1,29.72,WSW,238,23.0,29.0,84,0.02,,,0.04,VWS V13.01,2013-12-05 13:59:00,
2013-12-05 15:01:00,47.8,43.2,29.72,WSW,244,21.0,34.0,84,0.02,,,0.04,VWS V13.01,2013-12-05 14:01:00,
2013-12-05 15:04:00,47.8,43.2,29.72,WSW,238,23.0,31.0,84,0.02,,,0.04,VWS V13.01,2013-12-05 14:04:00,
2013-12-05 15:05:00,47.8,43.2,29.72,WSW,240,22.0,31.0,84,0.02,,,0.04,VWS V13.01,2013-12-05 14:05:00,
2013-12-05 15:06:00,47.9,43.3,29.72,WSW,248,17.0,31.0,84,0.02,,,0.04,VWS V13.01,2013-12-05 14:06:00,
2013-12-05 15:09:00,47.9,43.3,29.72,West,259,25.0,31.0,84,0.02,,,0.04,VWS V13.01,2013-12-05 14:09:00,
2013-12-05 15:10:00,48.0,43.4,29.72,WSW,246,27.0,31.0,84,0.02,,,0.04,VWS V13.01,2013-12-05 14:10:00,
2013-12-05 15:11:00,48.0,43.4,29.72,West,264,20.0,31.0,84,0.02,,,0.04,VWS V13.01,2013-12-05 14:11:00,
2013-12-05 15:12:00,48.0,43.1,29.72,WSW,239,23.0,23.0,83,0.02,,,0.04,VWS V13.01,2013-12-05 14:12:00,
2013-12-05 15:14:00,48.0,43.1,29.72,WSW,249,15.0,28.0,83,0.02,,,0.04,VWS V13.01,2013-12-05 14:14:00,
2013-12-05 15:15:00,48.1,43.2,29.70,SW,227,12.0,28.0,83,0.02,,,0.04,VWS V13.01,2013-12-05 14:15:00,
2013-12-05 15:16:00,48.1,43.2,29.70,WSW,240,28.0,32.0,83,0.02,,,0.04,VWS V13.01,2013-12-05 14:16:00,
2013-12-05 15:17:00,48.1,43.2,29.70,SW,234,13.0,28.0,83,0.01,,,0.04,VWS V13.01,2013-12-05 14:17:00,
2013-12-05 15:19:00,48.1,43.2,29.70,WSW,238,20.0,40.0,83,0.01,,,0.04,VWS V13.01,2013-12-05 14:19:00,
2013-12-05 15:20:00,48.2,43.3,29.70,West,261,19.0,40.0,83,0.01,,,0.04,VWS V13.01,2013-12-05 14:20:00,
2013-12-05 15:21:00,48.2,43.3,29.70,SW,229,23.0,40.0,83,0.01,,,0.04,VWS V13.01,2013-12-05 14:21:00,
2013-12-05 15:23:00,48.3,43.4,29.70,WSW,237,23.0,34.0,83,0.01,,,0.04,VWS V13.01,2013-12-05 14:23:00,
2013-12-05 15:24:00,48.3,43.4,29.70,WSW,240,23.0,34.0,83,0.01,,,0.04,VWS V13.01,2013-12-05 14:24:00,
2013-12-05 15:25:00,48.4,43.5,29.70,SW,232,21.0,34.0,83,0.01,,,0.04,VWS V13.01,2013-12-05 14:25:00,
2013-12-05 15:26:00,48.4,43.5,29.70,SW,229,28.0,28.0,83,0.01,,,0.04,VWS V13.01,2013-12-05 14:26:00,
2013-12-05 15:28:00,48.5,43.6,29.70,WSW,257,21.0,28.0,83,0.01,,,0.04,VWS V13.01,2013-12-05 14:28:00,
2013-12-05 15:29:00,48.5,43.6,29.70,West,263,15.0,37.0,83,0.01,,,0.04,VWS V13.01,2013-12-05 14:29:00,
2013-12-05 15:30:00,48.5,43.3,29.71,WSW,243,33.0,37.0,82,0.01,,,0.04,VWS V13.01,2013-12-05 14:30:00,
2013-12-05 15:31:00,48.5,43.3,29.71,West,268,26.0,27.0,82,0.01,,,0.04,VWS V13.01,2013-12-05 14:31:00,
2013-12-05 15:33:00,48.6,43.4,29.71,SW,223,27.0,29.0,82,0.01,,,0.04,VWS V13.01,2013-12-05 14:33:00,
2013-12-05 15:34:00,48.6,43.4,29.71,WSW,250,29.0,39.0,82,0.01,,,0.04,VWS V13.01,2013-12-05 14:34:00,
2013-12-05 15:36:00,48.7,43.5,29.71,WSW,257,18.0,39.0,82,0.01,,,0.04,VWS V13.01,2013-12-05 14:36:00,
2013-12-05 15:38:00,48.7,43.5,29.71,West,261,26.0,39.0,82,0.00,,,0.04,VWS V13.01,2013-12-05 14:38:00,
2013-12-05 15:39:00,48.7,43.5,29.71,WSW,244,16.0,39.0,82,0.00,,,0.04,VWS V13.01,2013-12-05 14:39:00,
2013-12-05 15:41:00,48.7,43.5,29.71,WNW,288,33.0,39.0,82,0.00,,,0.04,VWS V13.01,2013-12-05 14:41:00,
2013-12-05 15:42:00,48.7,43.5,29.71,SW,232,25.0,31.0,82,0.00,,,0.04,VWS V13.01,2013-12-05 14:42:00,
2013-12-05 15:43:00,48.8,43.6,29.71,WSW,240,14.0,31.0,82,0.00,,,0.04,VWS V13.01,2013-12-05 14:43:00,
2013-12-05 15:44:00,48.8,43.6,29.71,WSW,248,25.0,35.0,82,0.00,,,0.04,VWS V13.01,2013-12-05 14:44:00,
2013-12-05 15:46:00,48.8,43.6,29.68,West,270,29.0,44.0,82,0.00,,,0.04,VWS V13.01,2013-12-05 14:46:00,
2013-12-05 15:47:00,48.8,43.6,29.68,WSW,246,33.0,33.0,82,0.00,,,0.04,VWS V13.01,2013-12-05 14:47:00,
2013-12-05 15:48:00,48.9,43.7,29.68,SW,223,26.0,34.0,82,0.00,,,0.04,VWS V13.01,2013-12-05 14:48:00,
2013-12-05 15:49:00,48.9,43.7,29.68,WSW,252,24.0,34.0,82,0.00,,,0.04,VWS V13.01,2013-12-05 14:49:00,
2013-12-05 15:51:00,48.9,43.7,29.68,WSW,245,17.0,26.0,82,0.00,,,0.04,VWS V13.01,2013-12-05 14:51:00,
2013-12-05 15:52:00,48.9,43.7,29.68,SW,232,22.0,26.0,82,0.00,,,0.04,VWS V13.01,2013-12-05 14:52:00,
2013-12-05 15:53:00,49.0,44.1,29.68,SW,223,23.0,34.0,83,0.00,,,0.04,VWS V13.01,2013-12-05 14:53:00,
2013-12-05 15:54:00,49.0,44.1,29.68,WSW,246,36.0,36.0,83,0.00,,,0.04,VWS V13.01,2013-12-05 14:54:00,
2013-12-05 15:56:00,49.1,43.8,29.68,WSW,248,19.0,34.0,82,0.00,,,0.04,VWS V13.01,2013-12-05 14:56:00,
2013-12-05 15:57:00,49.1,43.8,29.68,West,268,23.0,34.0,82,0.00,,,0.04,VWS V13.01,2013-12-05 14:57:00,
2013-12-05 15:58:00,49.1,43.8,29.68,WSW,244,19.0,34.0,82,0.00,,,0.04,VWS V13.01,2013-12-05 14:58:00,
2013-12-05 15:59:00,49.2,44.0,29.68,WSW,238,22.0,42.0,82,0.00,,,0.04,VWS V13.01,2013-12-05 14:59:00,
2013-12-05 16:02:00,49.2,44.0,29.68,SW,234,17.0,37.0,82,0.00,,,0.04,VWS V13.01,2013-12-05 15:02:00,
2013-12-05 16:03:00,49.2,44.0,29.68,WSW,245,30.0,37.0,82,0.00,,,0.04,VWS V13.01,2013-12-05 15:03:00,
2013-12-05 16:04:00,49.2,44.3,29.68,SW,233,33.0,37.0,83,0.00,,,0.04,VWS V13.01,2013-12-05 15:04:00,
2013-12-05 16:07:00,49.2,44.3,29.68,SW,230,25.0,32.0,83,0.00,,,0.04,VWS V13.01,2013-12-05 15:07:00,
2013-12-05 16:08:00,49.2,44.3,29.68,West,259,27.0,32.0,83,0.00,,,0.04,VWS V13.01,2013-12-05 15:08:00,
2013-12-05 16:09:00,49.2,44.3,29.68,WSW,257,20.0,32.0,83,0.00,,,0.04,VWS V13.01,2013-12-05 15:09:00,
2013-12-05 16:12:00,49.2,44.3,29.68,WSW,246,25.0,34.0,83,0.00,,,0.04,VWS V13.01,2013-12-05 15:12:00,
2013-12-05 16:13:00,49.2,44.3,29.68,WSW,256,26.0,34.0,83,0.00,,,0.04,VWS V13.01,2013-12-05 15:13:00,
2013-12-05 16:14:00,49.2,44.3,29.68,West,271,13.0,34.0,83,0.00,,,0.04,VWS V13.01,2013-12-05 15:14:00,
2013-12-05 16:17:00,49.2,44.6,29.67,WSW,256,20.0,34.0,84,0.00,,,0.04,VWS V13.01,2013-12-05 15:17:00,
2013-12-05 16:18:00,49.2,44.6,29.67,West,259,20.0,34.0,84,0.00,,,0.04,VWS V13.01,2013-12-05 15:18:00,
2013-12-05 16:20:00,49.1,44.5,29.67,West,265,19.0,34.0,84,0.00,,,0.04,VWS V13.01,2013-12-05 15:20:00,
2013-12-05 16:22:00,49.1,44.5,29.67,WSW,242,20.0,36.0,84,0.00,,,0.04,VWS V13.01,2013-12-05 15:22:00,
2013-12-05 16:23:00,49.1,44.5,29.67,West,268,33.0,36.0,84,0.00,,,0.04,VWS V13.01,2013-12-05 15:23:00,
2013-12-05 16:25:00,49.1,44.5,29.67,WSW,252,19.0,36.0,84,0.00,,,0.04,VWS V13.01,2013-12-05 15:25:00,
2013-12-05 16:27:00,49.1,44.8,29.67,WSW,250,19.0,20.0,85,0.00,,,0.04,VWS V13.01,2013-12-05 15:27:00,
2013-12-05 16:28:00,49.1,44.8,29.67,WSW,254,15.0,21.0,85,0.00,,,0.04,VWS V13.01,2013-12-05 15:28:00,
2013-12-05 16:30:00,49.0,44.7,29.67,West,261,22.0,33.0,85,0.00,,,0.05,VWS V13.01,2013-12-05 15:30:00,
2013-12-05 16:32:00,49.0,44.7,29.67,WSW,248,15.0,33.0,85,0.01,,,0.05,VWS V13.01,2013-12-05 15:32:00,
2013-12-05 16:33:00,49.0,44.7,29.67,West,272,19.0,33.0,85,0.01,,,0.05,VWS V13.01,2013-12-05 15:33:00,
2013-12-05 16:34:00,49.0,44.7,29.67,WSW,247,27.0,33.0,85,0.01,,,0.05,VWS V13.01,2013-12-05 15:34:00,
2013-12-05 16:35:00,49.0,44.7,29.67,West,271,25.0,33.0,85,0.01,,,0.05,VWS V13.01,2013-12-05 15:35:00,
2013-12-05 16:37:00,49.0,45.0,29.67,West,260,20.0,36.0,86,0.02,,,0.06,VWS V13.01,2013-12-05 15:37:00,
2013-12-05 16:38:00,49.1,45.1,29.67,West,271,24.0,36.0,86,0.02,,,0.06,VWS V13.01,2013-12-05 15:38:00,
2013-12-05 16:39:00,49.1,45.1,29.67,WSW,258,25.0,36.0,86,0.02,,,0.06,VWS V13.01,2013-12-05 15:39:00,
2013-12-05 16:40:00,49.1,45.1,29.67,West,269,37.0,41.0,86,0.02,,,0.06,VWS V13.01,2013-12-05 15:40:00,
2013-12-05 16:42:00,49.1,45.1,29.67,WSW,240,17.0,34.0,86,0.02,,,0.07,VWS V13.01,2013-12-05 15:42:00,
2013-12-05 16:43:00,49.2,45.2,29.67,WSW,248,19.0,34.0,86,0.03,,,0.07,VWS V13.01,2013-12-05 15:43:00,
2013-12-05 16:44:00,49.1,45.4,29.67,WSW,237,18.0,34.0,87,0.03,,,0.08,VWS V13.01,2013-12-05 15:44:00,
2013-12-05 16:45:00,49.0,45.3,29.67,WSW,251,16.0,34.0,87,0.04,,,0.08,VWS V13.01,2013-12-05 15:45:00,
2013-12-05 16:47:00,48.9,45.2,29.69,West,264,18.0,28.0,87,0.05,,,0.09,VWS V13.01,2013-12-05 15:47:00,
2013-12-05 16:48:00,48.9,45.2,29.69,WSW,254,16.0,28.0,87,0.06,,,0.09,VWS V13.01,2013-12-05 15:48:00,
2013-12-05 16:49:00,48.9,45.5,29.69,West,260,16.0,28.0,88,0.06,,,0.09,VWS V13.01,2013-12-05 15:49:00,
2013-12-05 16:50:00,48.9,45.5,29.69,WNW,289,15.0,30.0,88,0.08,,,0.12,VWS V13.01,2013-12-05 15:50:00,
2013-12-05 16:52:00,48.7,45.3,29.69,WNW,291,11.0,25.0,88,0.09,,,0.13,VWS V13.01,2013-12-05 15:52:00,
2013-12-05 16:53:00,48.7,45.6,29.69,West,274,17.0,26.0,89,0.09,,,0.13,VWS V13.01,2013-12-05 15:53:00,
2013-12-05 16:54:00,48.7,45.6,29.69,WNW,298,12.0,27.0,89,0.09,,,0.13,VWS V13.01,2013-12-05 15:54:00,
2013-12-05 16:55:00,48.6,45.5,29.69,WSW,257,13.0,33.0,89,0.09,,,0.13,VWS V13.01,2013-12-05 15:55:00,
2013-12-05 16:57:00,48.5,45.4,29.69,WNW,285,21.0,30.0,89,0.10,,,0.14,VWS V13.01,2013-12-05 15:57:00,
2013-12-05 16:58:00,48.5,45.4,29.69,WNW,282,19.0,30.0,89,0.10,,,0.14,VWS V13.01,2013-12-05 15:58:00,
2013-12-05 16:59:00,48.5,45.4,29.69,WNW,288,29.0,30.0,89,0.10,,,0.14,VWS V13.01,2013-12-05 15:59:00,
2013-12-05 17:00:00,48.4,45.0,29.69,WNW,295,5.0,30.0,88,0.11,,,0.15,VWS V13.01,2013-12-05 16:00:00,
2013-12-05 17:02:00,48.1,44.4,29.70,NW,307,22.0,29.0,87,0.11,,,0.16,VWS V13.01,2013-12-05 16:02:00,
2013-12-05 17:03:00,47.6,43.6,29.70,WNW,284,17.0,32.0,86,0.12,,,0.16,VWS V13.01,2013-12-05 16:03:00,
2013-12-05 17:04:00,47.5,43.5,29.70,West,263,28.0,32.0,86,0.12,,,0.16,VWS V13.01,2013-12-05 16:04:00,
2013-12-05 17:05:00,47.2,43.2,29.70,West,260,16.0,32.0,86,0.12,,,0.16,VWS V13.01,2013-12-05 16:05:00,
2013-12-05 17:07:00,46.3,42.0,29.70,NW,319,15.0,28.0,85,0.12,,,0.16,VWS V13.01,2013-12-05 16:07:00,
2013-12-05 17:09:00,46.0,42.0,29.70,NNW,342,10.0,28.0,86,0.12,,,0.16,VWS V13.01,2013-12-05 16:09:00,
2013-12-05 17:10:00,45.9,42.0,29.70,WNW,293,23.0,28.0,86,0.12,,,0.16,VWS V13.01,2013-12-05 16:10:00,
2013-12-05 17:12:00,45.6,41.4,29.70,WSW,252,15.0,30.0,85,0.12,,,0.16,VWS V13.01,2013-12-05 16:12:00,
2013-12-05 17:14:00,45.5,41.6,29.70,NW,306,22.0,30.0,86,0.12,,,0.16,VWS V13.01,2013-12-05 16:14:00,
2013-12-05 17:15:00,45.5,41.6,29.71,West,260,24.0,32.0,86,0.13,,,0.17,VWS V13.01,2013-12-05 16:15:00,
2013-12-05 17:17:00,45.3,41.1,29.71,West,271,22.0,30.0,85,0.13,,,0.17,VWS V13.01,2013-12-05 16:17:00,
2013-12-05 17:19:00,45.4,41.2,29.71,WSW,240,14.0,30.0,85,0.13,,,0.17,VWS V13.01,2013-12-05 16:19:00,
2013-12-05 17:20:00,45.4,41.2,29.71,WSW,242,12.0,30.0,85,0.13,,,0.17,VWS V13.01,2013-12-05 16:20:00,
2013-12-05 17:22:00,45.7,41.8,29.71,West,265,7.0,25.0,86,0.13,,,0.17,VWS V13.01,2013-12-05 16:22:00,
2013-12-05 17:24:00,45.9,42.0,29.71,WSW,240,5.0,31.0,86,0.13,,,0.17,VWS V13.01,2013-12-05 16:24:00,
2013-12-05 17:25:00,46.0,41.8,29.71,WNW,284,26.0,33.0,85,0.13,,,0.17,VWS V13.01,2013-12-05 16:25:00,
2013-12-05 17:26:00,46.0,41.8,29.71,West,267,12.0,33.0,85,0.13,,,0.17,VWS V13.01,2013-12-05 16:26:00,
2013-12-05 17:27:00,46.5,41.9,29.71,WNW,300,18.0,33.0,84,0.13,,,0.17,VWS V13.01,2013-12-05 16:27:00,
2013-12-05 17:29:00,46.7,41.8,29.71,West,281,23.0,33.0,83,0.13,,,0.17,VWS V13.01,2013-12-05 16:29:00,
2013-12-05 17:30:00,46.9,41.7,29.70,West,266,17.0,33.0,82,0.13,,,0.17,VWS V13.01,2013-12-05 16:30:00,
2013-12-05 17:31:00,46.9,41.4,29.70,West,271,22.0,33.0,81,0.13,,,0.17,VWS V13.01,2013-12-05 16:31:00,
2013-12-05 17:32:00,47.0,40.8,29.70,WSW,257,22.0,31.0,79,0.13,,,0.18,VWS V13.01,2013-12-05 16:32:00,
2013-12-05 17:34:00,47.0,40.5,29.70,West,262,26.0,31.0,78,0.13,,,0.18,VWS V13.01,2013-12-05 16:34:00,
2013-12-05 17:35:00,47.1,39.9,29.70,WSW,249,15.0,31.0,76,0.13,,,0.18,VWS V13.01,2013-12-05 16:35:00,
2013-12-05 17:36:00,47.2,40.0,29.70,WSW,252,14.0,31.0,76,0.13,,,0.18,VWS V13.01,2013-12-05 16:36:00,
2013-12-05 17:37:00,47.3,40.1,29.70,West,261,16.0,21.0,76,0.13,,,0.18,VWS V13.01,2013-12-05 16:37:00,
2013-12-05 17:39:00,47.4,40.2,29.70,West,272,15.0,24.0,76,0.13,,,0.18,VWS V13.01,2013-12-05 16:39:00,
2013-12-05 17:40:00,47.4,40.2,29.70,WNW,283,32.0,32.0,76,0.13,,,0.18,VWS V13.01,2013-12-05 16:40:00,
2013-12-05 17:41:00,47.5,40.3,29.70,West,276,9.0,33.0,76,0.13,,,0.18,VWS V13.01,2013-12-05 16:41:00,
2013-12-05 17:43:00,47.6,40.8,29.70,West,261,8.0,34.0,77,0.13,,,0.18,VWS V13.01,2013-12-05 16:43:00,
2013-12-05 17:44:00,47.7,40.8,29.70,West,260,13.0,34.0,77,0.13,,,0.18,VWS V13.01,2013-12-05 16:44:00,
2013-12-05 17:45:00,47.7,40.8,29.70,NW,307,21.0,34.0,77,0.13,,,0.18,VWS V13.01,2013-12-05 16:45:00,
2013-12-05 17:46:00,47.7,40.8,29.70,NW,310,11.0,34.0,77,0.13,,,0.18,VWS V13.01,2013-12-05 16:46:00,
2013-12-05 17:48:00,47.8,40.6,29.70,WNW,292,28.0,38.0,76,0.10,,,0.18,VWS V13.01,2013-12-05 16:48:00,
2013-12-05 17:49:00,47.9,39.7,29.70,WNW,290,16.0,38.0,73,0.10,,,0.18,VWS V13.01,2013-12-05 16:49:00,
2013-12-05 17:50:00,48.0,39.8,29.70,WNW,291,13.0,38.0,73,0.10,,,0.18,VWS V13.01,2013-12-05 16:50:00,
2013-12-05 17:51:00,48.1,39.5,29.70,NW,325,9.0,38.0,72,0.10,,,0.18,VWS V13.01,2013-12-05 16:51:00,
2013-12-05 17:53:00,48.2,39.2,29.70,North,355,19.0,30.0,71,0.06,,,0.18,VWS V13.01,2013-12-05 16:53:00,
2013-12-05 17:54:00,48.2,40.3,29.70,West,260,22.0,32.0,74,0.06,,,0.18,VWS V13.01,2013-12-05 16:54:00,
2013-12-05 17:55:00,48.2,39.2,29.70,WSW,248,12.0,32.0,71,0.06,,,0.18,VWS V13.01,2013-12-05 16:55:00,
2013-12-05 17:56:00,48.3,39.3,29.70,WNW,298,18.0,32.0,71,0.06,,,0.18,VWS V13.01,2013-12-05 16:56:00,
2013-12-05 17:58:00,48.3,39.3,29.70,West,273,23.0,39.0,71,0.04,,,0.18,VWS V13.01,2013-12-05 16:58:00,
2013-12-05 17:59:00,48.3,39.3,29.70,NW,304,12.0,39.0,71,0.04,,,0.18,VWS V13.01,2013-12-05 16:59:00,
2013-12-05 18:00:00,48.3,39.3,29.70,WSW,245,18.0,39.0,71,0.04,,,0.18,VWS V13.01,2013-12-05 17:00:00,
2013-12-05 18:01:00,48.3,39.3,29.70,West,280,33.0,39.0,71,0.04,,,0.18,VWS V13.01,2013-12-05 17:01:00,
2013-12-05 18:03:00,48.3,39.3,29.70,WNW,299,13.0,26.0,71,0.03,,,0.18,VWS V13.01,2013-12-05 17:03:00,
2013-12-05 18:04:00,48.2,39.2,29.70,NW,309,33.0,34.0,71,0.03,,,0.18,VWS V13.01,2013-12-05 17:04:00,
2013-12-05 18:06:00,48.2,40.3,29.70,WSW,251,32.0,34.0,74,0.03,,,0.18,VWS V13.01,2013-12-05 17:06:00,
2013-12-05 18:07:00,48.2,39.2,29.70,WSW,238,19.0,25.0,71,0.03,,,0.18,VWS V13.01,2013-12-05 17:07:00,
2013-12-05 18:08:00,48.1,39.2,29.70,WNW,303,15.0,31.0,71,0.02,,,0.18,VWS V13.01,2013-12-05 17:08:00,
2013-12-05 18:09:00,48.1,39.5,29.70,WNW,283,14.0,40.0,72,0.02,,,0.19,VWS V13.01,2013-12-05 17:09:00,
2013-12-05 18:11:00,47.8,39.9,29.70,NW,310,26.0,40.0,74,0.03,,,0.19,VWS V13.01,2013-12-05 17:11:00,
2013-12-05 18:12:00,47.6,40.1,29.70,WSW,238,13.0,33.0,75,0.03,,,0.20,VWS V13.01,2013-12-05 17:12:00,
2013-12-05 18:13:00,47.4,40.2,29.70,West,260,21.0,33.0,76,0.04,,,0.20,VWS V13.01,2013-12-05 17:13:00,
2013-12-05 18:15:00,47.0,40.5,29.70,NNW,337,15.0,34.0,78,0.04,,,0.20,VWS V13.01,2013-12-05 17:15:00,
2013-12-05 18:16:00,46.7,40.5,29.74,West,267,17.0,34.0,79,0.04,,,0.20,VWS V13.01,2013-12-05 17:16:00,
2013-12-05 18:17:00,46.4,40.2,29.74,WNW,298,22.0,26.0,79,0.03,,,0.20,VWS V13.01,2013-12-05 17:17:00,
2013-12-05 18:18:00,46.2,40.4,29.74,NW,321,25.0,26.0,80,0.03,,,0.20,VWS V13.01,2013-12-05 17:18:00,
2013-12-05 18:20:00,45.9,40.7,29.74,NW,322,15.0,28.0,82,0.03,,,0.20,VWS V13.01,2013-12-05 17:20:00,
2013-12-05 18:21:00,45.7,40.8,29.74,NW,310,15.0,28.0,83,0.03,,,0.20,VWS V13.01,2013-12-05 17:21:00,
2013-12-05 18:22:00,45.4,40.9,29.74,NW,307,10.0,29.0,84,0.02,,,0.20,VWS V13.01,2013-12-05 17:22:00,
2013-12-05 18:23:00,45.3,40.8,29.74,NW,306,19.0,29.0,84,0.02,,,0.20,VWS V13.01,2013-12-05 17:23:00,
2013-12-05 18:25:00,45.1,40.6,29.74,West,277,14.0,29.0,84,0.02,,,0.20,VWS V13.01,2013-12-05 17:25:00,
2013-12-05 18:26:00,45.0,40.8,29.74,NW,323,7.0,11.0,85,0.02,,,0.20,VWS V13.01,2013-12-05 17:26:00,
2013-12-05 18:27:00,44.9,40.7,29.74,NNW,348,14.0,23.0,85,0.02,,,0.20,VWS V13.01,2013-12-05 17:27:00,
2013-12-05 18:28:00,44.7,40.5,29.74,NNW,333,13.0,23.0,85,0.02,,,0.20,VWS V13.01,2013-12-05 17:28:00,
2013-12-05 18:30:00,44.4,40.2,29.77,NW,318,18.0,23.0,85,0.02,,,0.20,VWS V13.01,2013-12-05 17:30:00,
2013-12-05 18:31:00,44.3,40.1,29.77,NW,315,7.0,19.0,85,0.02,,,0.20,VWS V13.01,2013-12-05 17:31:00,
2013-12-05 18:32:00,44.1,39.9,29.77,WNW,296,17.0,19.0,85,0.02,,,0.20,VWS V13.01,2013-12-05 17:32:00,
2013-12-05 18:33:00,44.0,39.8,29.77,WNW,295,15.0,24.0,85,0.02,,,0.20,VWS V13.01,2013-12-05 17:33:00,
2013-12-05 18:36:00,43.7,39.5,29.77,NNW,337,16.0,26.0,85,0.02,,,0.20,VWS V13.01,2013-12-05 17:36:00,
2013-12-05 18:38:00,43.6,39.7,29.77,NNW,342,24.0,24.0,86,0.02,,,0.20,VWS V13.01,2013-12-05 17:38:00,
2013-12-05 18:39:00,43.4,39.5,29.77,WNW,287,9.0,28.0,86,0.02,,,0.20,VWS V13.01,2013-12-05 17:39:00,
2013-12-05 18:41:00,43.3,39.4,29.77,West,272,23.0,28.0,86,0.02,,,0.20,VWS V13.01,2013-12-05 17:41:00,
2013-12-05 18:43:00,43.2,39.3,29.77,WNW,299,15.0,18.0,86,0.02,,,0.20,VWS V13.01,2013-12-05 17:43:00,
2013-12-05 18:44:00,43.2,39.3,29.77,NNW,346,17.0,18.0,86,0.02,,,0.20,VWS V13.01,2013-12-05 17:44:00,
2013-12-05 18:46:00,43.2,39.6,29.78,NW,315,13.0,22.0,87,0.02,,,0.20,VWS V13.01,2013-12-05 17:46:00,
2013-12-05 18:47:00,43.2,39.6,29.78,NW,318,27.0,27.0,87,0.02,,,0.20,VWS V13.01,2013-12-05 17:47:00,
2013-12-05 18:48:00,43.2,39.6,29.78,NW,306,10.0,27.0,87,0.02,,,0.20,VWS V13.01,2013-12-05 17:48:00,
2013-12-05 18:49:00,43.2,39.6,29.78,NNW,328,24.0,27.0,87,0.02,,,0.20,VWS V13.01,2013-12-05 17:49:00,
2013-12-05 18:51:00,43.2,39.6,29.78,NNW,342,38.0,38.0,87,0.02,,,0.20,VWS V13.01,2013-12-05 17:51:00,
2013-12-05 18:53:00,42.9,39.0,29.78,NNW,334,15.0,38.0,86,0.02,,,0.20,VWS V13.01,2013-12-05 17:53:00,
2013-12-05 18:54:00,42.7,38.8,29.78,NNW,348,18.0,38.0,86,0.02,,,0.20,VWS V13.01,2013-12-05 17:54:00,
2013-12-05 18:56:00,42.3,38.4,29.78,NW,313,13.0,21.0,86,0.02,,,0.20,VWS V13.01,2013-12-05 17:56:00,
2013-12-05 18:57:00,42.2,38.3,29.78,WNW,286,10.0,21.0,86,0.02,,,0.20,VWS V13.01,2013-12-05 17:57:00,
2013-12-05 18:58:00,42.1,38.2,29.78,NW,318,14.0,21.0,86,0.02,,,0.20,VWS V13.01,2013-12-05 17:58:00,
2013-12-05 18:59:00,42.0,38.1,29.78,WNW,291,23.0,23.0,86,0.02,,,0.20,VWS V13.01,2013-12-05 17:59:00,
2013-12-05 19:01:00,41.7,37.8,29.80,NW,319,9.0,20.0,86,0.02,,,0.20,VWS V13.01,2013-12-05 18:01:00,
2013-12-05 19:02:00,41.7,37.8,29.80,NW,314,16.0,20.0,86,0.02,,,0.20,VWS V13.01,2013-12-05 18:02:00,
2013-12-05 19:03:00,41.6,37.7,29.80,WNW,302,16.0,20.0,86,0.02,,,0.20,VWS V13.01,2013-12-05 18:03:00,
2013-12-05 19:04:00,41.6,37.7,29.80,West,275,15.0,25.0,86,0.02,,,0.20,VWS V13.01,2013-12-05 18:04:00,
2013-12-05 19:06:00,41.6,37.7,29.80,NW,310,8.0,11.0,86,0.02,,,0.20,VWS V13.01,2013-12-05 18:06:00,
2013-12-05 19:07:00,41.6,37.7,29.80,NNW,344,6.0,14.0,86,0.02,,,0.20,VWS V13.01,2013-12-05 18:07:00,
2013-12-05 19:08:00,41.6,37.7,29.80,NW,317,9.0,18.0,86,0.02,,,0.20,VWS V13.01,2013-12-05 18:08:00,
2013-12-05 19:09:00,41.6,37.7,29.80,WNW,294,11.0,18.0,86,0.02,,,0.20,VWS V13.01,2013-12-05 18:09:00,
2013-12-05 19:11:00,41.7,37.8,29.80,NW,324,12.0,23.0,86,0.02,,,0.20,VWS V13.01,2013-12-05 18:11:00,
2013-12-05 19:12:00,41.7,37.8,29.80,WNW,297,9.0,23.0,86,0.02,,,0.20,VWS V13.01,2013-12-05 18:12:00,
2013-12-05 19:14:00,41.8,37.9,29.80,West,263,17.0,28.0,86,0.02,,,0.20,VWS V13.01,2013-12-05 18:14:00,
2013-12-05 19:17:00,41.9,38.3,29.82,North,360,17.0,32.0,87,0.02,,,0.22,VWS V13.01,2013-12-05 18:17:00,
2013-12-05 19:19:00,41.8,38.2,29.82,NNW,338,27.0,32.0,87,0.03,,,0.23,VWS V13.01,2013-12-05 18:19:00,
2013-12-05 19:22:00,41.2,37.6,29.82,NW,317,12.0,30.0,87,0.03,,,0.23,VWS V13.01,2013-12-05 18:22:00,
2013-12-05 19:24:00,40.7,36.8,29.82,NNW,329,29.0,33.0,86,0.04,,,0.24,VWS V13.01,2013-12-05 18:24:00,
2013-12-05 19:25:00,40.7,36.5,29.82,NW,313,21.0,33.0,85,0.04,,,0.24,VWS V13.01,2013-12-05 18:25:00,
2013-12-05 19:27:00,40.5,35.8,29.82,NW,323,11.0,24.0,83,0.04,,,0.24,VWS V13.01,2013-12-05 18:27:00,
2013-12-05 19:29:00,40.6,35.8,29.82,NNW,344,19.0,28.0,83,0.04,,,0.24,VWS V13.01,2013-12-05 18:29:00,
2013-12-05 19:32:00,40.8,36.0,29.82,NNW,329,12.0,20.0,83,0.04,,,0.24,VWS V13.01,2013-12-05 18:32:00,
2013-12-05 19:34:00,41.0,36.5,29.82,NW,316,10.0,20.0,84,0.04,,,0.24,VWS V13.01,2013-12-05 18:34:00,
2013-12-05 19:35:00,41.0,36.5,29.82,WNW,300,12.0,20.0,84,0.04,,,0.24,VWS V13.01,2013-12-05 18:35:00,
2013-12-05 19:37:00,41.1,36.6,29.82,WNW,292,4.0,17.0,84,0.04,,,0.24,VWS V13.01,2013-12-05 18:37:00,
2013-12-05 19:39:00,41.1,36.6,29.82,West,267,13.0,25.0,84,0.04,,,0.24,VWS V13.01,2013-12-05 18:39:00,
2013-12-05 19:40:00,41.1,36.6,29.82,WNW,284,5.0,25.0,84,0.04,,,0.24,VWS V13.01,2013-12-05 18:40:00,
2013-12-05 19:42:00,41.1,36.6,29.82,West,275,6.0,21.0,84,0.04,,,0.24,VWS V13.01,2013-12-05 18:42:00,
2013-12-05 19:44:00,41.2,36.7,29.82,West,265,5.0,24.0,84,0.04,,,0.24,VWS V13.01,2013-12-05 18:44:00,
2013-12-05 19:45:00,41.2,36.7,29.82,West,277,12.0,24.0,84,0.04,,,0.24,VWS V13.01,2013-12-05 18:45:00,
2013-12-05 19:47:00,41.2,36.7,29.83,West,268,10.0,13.0,84,0.04,,,0.24,VWS V13.01,2013-12-05 18:47:00,
2013-12-05 19:49:00,41.3,36.8,29.83,West,264,16.0,16.0,84,0.04,,,0.24,VWS V13.01,2013-12-05 18:49:00,
2013-12-05 19:50:00,41.4,36.6,29.83,WNW,294,11.0,17.0,83,0.04,,,0.24,VWS V13.01,2013-12-05 18:50:00,
2013-12-05 19:52:00,41.5,36.7,29.83,West,272,13.0,17.0,83,0.04,,,0.24,VWS V13.01,2013-12-05 18:52:00,
2013-12-05 19:54:00,41.6,36.8,29.83,WNW,286,11.0,21.0,83,0.04,,,0.24,VWS V13.01,2013-12-05 18:54:00,
2013-12-05 19:55:00,41.6,36.8,29.83,WNW,287,6.0,21.0,83,0.04,,,0.24,VWS V13.01,2013-12-05 18:55:00,
2013-12-05 19:57:00,41.7,36.9,29.83,WNW,296,16.0,17.0,83,0.03,,,0.24,VWS V13.01,2013-12-05 18:57:00,
2013-12-05 19:59:00,41.8,36.7,29.83,West,271,17.0,17.0,82,0.04,,,0.24,VWS V13.01,2013-12-05 18:59:00,
2013-12-05 20:00:00,41.8,36.7,29.83,WSW,256,25.0,25.0,82,0.04,,,0.24,VWS V13.01,2013-12-05 19:00:00,
2013-12-05 20:02:00,41.8,36.7,29.84,West,281,18.0,35.0,82,0.05,,,0.25,VWS V13.01,2013-12-05 19:02:00,
2013-12-05 20:05:00,40.9,35.8,29.84,NW,304,7.0,35.0,82,0.06,,,0.26,VWS V13.01,2013-12-05 19:05:00,
2013-12-05 20:07:00,40.2,35.8,29.84,NW,310,22.0,26.0,84,0.06,,,0.27,VWS V13.01,2013-12-05 19:07:00,
2013-12-05 20:10:00,39.6,35.8,29.84,NW,317,15.0,26.0,86,0.07,,,0.28,VWS V13.01,2013-12-05 19:10:00,
2013-12-05 20:11:00,39.5,35.7,29.84,NW,321,5.0,26.0,86,0.07,,,0.28,VWS V13.01,2013-12-05 19:11:00,
2013-12-05 20:12:00,39.3,35.8,29.84,NW,304,12.0,20.0,87,0.07,,,0.28,VWS V13.01,2013-12-05 19:12:00,
2013-12-05 20:15:00,39.2,36.0,29.84,WSW,249,16.0,24.0,88,0.08,,,0.28,VWS V13.01,2013-12-05 19:15:00,
2013-12-05 20:16:00,39.2,36.0,29.86,West,276,5.0,24.0,88,0.08,,,0.28,VWS V13.01,2013-12-05 19:16:00,
2013-12-05 20:17:00,39.1,35.8,29.86,WNW,285,5.0,24.0,88,0.07,,,0.28,VWS V13.01,2013-12-05 19:17:00,
2013-12-05 20:18:00,39.2,36.0,29.86,WNW,285,19.0,24.0,88,0.07,,,0.28,VWS V13.01,2013-12-05 19:18:00,
2013-12-05 20:20:00,39.3,36.3,29.86,West,274,13.0,24.0,89,0.08,,,0.29,VWS V13.01,2013-12-05 19:20:00,
2013-12-05 20:21:00,39.3,36.3,29.86,WNW,294,18.0,24.0,89,0.08,,,0.29,VWS V13.01,2013-12-05 19:21:00,
2013-12-05 20:22:00,39.4,36.4,29.86,West,277,9.0,22.0,89,0.06,,,0.30,VWS V13.01,2013-12-05 19:22:00,
2013-12-05 20:23:00,39.4,36.4,29.86,West,265,15.0,22.0,89,0.06,,,0.30,VWS V13.01,2013-12-05 19:23:00,
2013-12-05 20:25:00,39.4,36.7,29.86,WSW,256,22.0,22.0,90,0.08,,,0.31,VWS V13.01,2013-12-05 19:25:00,
2013-12-05 20:26:00,39.3,36.6,29.86,WNW,292,12.0,22.0,90,0.08,,,0.31,VWS V13.01,2013-12-05 19:26:00,
2013-12-05 20:27:00,39.3,36.6,29.86,WNW,303,8.0,17.0,90,0.07,,,0.31,VWS V13.01,2013-12-05 19:27:00,
2013-12-05 20:28:00,39.3,36.6,29.86,WNW,298,10.0,17.0,90,0.07,,,0.31,VWS V13.01,2013-12-05 19:28:00,
2013-12-05 20:30:00,39.2,36.5,29.86,WNW,290,9.0,17.0,90,0.07,,,0.31,VWS V13.01,2013-12-05 19:30:00,
2013-12-05 20:31:00,39.2,36.5,29.86,West,261,9.0,18.0,90,0.07,,,0.31,VWS V13.01,2013-12-05 19:31:00,
2013-12-05 20:33:00,39.2,36.8,29.86,WNW,286,7.0,14.0,91,0.07,,,0.31,VWS V13.01,2013-12-05 19:33:00,
2013-12-05 20:35:00,39.3,36.9,29.86,WNW,290,6.0,15.0,91,0.07,,,0.31,VWS V13.01,2013-12-05 19:35:00,
2013-12-05 20:36:00,39.3,36.9,29.86,WNW,287,7.0,15.0,91,0.07,,,0.31,VWS V13.01,2013-12-05 19:36:00,
2013-12-05 20:38:00,39.4,37.0,29.86,WNW,298,8.0,13.0,91,0.07,,,0.31,VWS V13.01,2013-12-05 19:38:00,
2013-12-05 20:40:00,39.5,37.1,29.86,WNW,284,5.0,13.0,91,0.07,,,0.31,VWS V13.01,2013-12-05 19:40:00,
2013-12-05 20:41:00,39.5,37.1,29.86,WNW,282,4.0,6.0,91,0.07,,,0.31,VWS V13.01,2013-12-05 19:41:00,
2013-12-05 20:43:00,39.6,37.2,29.86,NW,314,9.0,15.0,91,0.07,,,0.31,VWS V13.01,2013-12-05 19:43:00,
2013-12-05 20:45:00,39.7,37.3,29.86,WNW,298,6.0,16.0,91,0.07,,,0.31,VWS V13.01,2013-12-05 19:45:00,
2013-12-05 20:46:00,39.8,37.4,29.86,West,279,9.0,12.0,91,0.07,,,0.31,VWS V13.01,2013-12-05 19:46:00,
2013-12-05 20:48:00,39.9,37.5,29.86,WNW,284,5.0,12.0,91,0.07,,,0.31,VWS V13.01,2013-12-05 19:48:00,
2013-12-05 20:50:00,40.0,37.6,29.86,NW,325,10.0,21.0,91,0.07,,,0.31,VWS V13.01,2013-12-05 19:50:00,
2013-12-05 20:51:00,40.1,37.4,29.86,NNW,347,19.0,22.0,90,0.07,,,0.31,VWS V13.01,2013-12-05 19:51:00,
2013-12-05 20:52:00,40.1,37.4,29.86,WNW,287,7.0,22.0,90,0.07,,,0.31,VWS V13.01,2013-12-05 19:52:00,
2013-12-05 20:53:00,40.2,37.5,29.86,West,269,9.0,22.0,90,0.07,,,0.31,VWS V13.01,2013-12-05 19:53:00,
2013-12-05 20:54:00,40.3,37.3,29.86,WNW,297,15.0,22.0,89,0.07,,,0.31,VWS V13.01,2013-12-05 19:54:00,
2013-12-05 20:55:00,40.4,37.4,29.86,NW,317,6.0,22.0,89,0.07,,,0.31,VWS V13.01,2013-12-05 19:55:00,
2013-12-05 20:56:00,40.5,37.5,29.86,West,263,5.0,11.0,89,0.08,,,0.31,VWS V13.01,2013-12-05 19:56:00,
2013-12-05 20:57:00,40.5,37.2,29.86,NW,326,9.0,20.0,88,0.08,,,0.31,VWS V13.01,2013-12-05 19:57:00,
2013-12-05 20:58:00,40.5,37.2,29.86,West,272,13.0,22.0,88,0.08,,,0.31,VWS V13.01,2013-12-05 19:58:00,
2013-12-05 20:59:00,40.5,36.9,29.86,WNW,283,12.0,22.0,87,0.08,,,0.31,VWS V13.01,2013-12-05 19:59:00,
2013-12-05 21:00:00,40.6,37.0,29.87,West,278,10.0,22.0,87,0.08,,,0.31,VWS V13.01,2013-12-05 20:00:00,
2013-12-05 21:01:00,40.6,37.0,29.87,NNW,333,15.0,18.0,87,0.08,,,0.31,VWS V13.01,2013-12-05 20:01:00,
2013-12-05 21:02:00,40.6,37.0,29.87,West,261,5.0,18.0,87,0.08,,,0.31,VWS V13.01,2013-12-05 20:02:00,
2013-12-05 21:03:00,40.5,36.9,29.87,WNW,284,5.0,18.0,87,0.06,,,0.31,VWS V13.01,2013-12-05 20:03:00,
2013-12-05 21:04:00,40.5,36.9,29.87,WNW,303,20.0,20.0,87,0.06,,,0.31,VWS V13.01,2013-12-05 20:04:00,
2013-12-05 21:05:00,40.4,36.8,29.87,WSW,246,12.0,20.0,87,0.06,,,0.31,VWS V13.01,2013-12-05 20:05:00,
2013-12-05 21:06:00,40.4,36.8,29.87,West,279,17.0,18.0,87,0.06,,,0.31,VWS V13.01,2013-12-05 20:06:00,
2013-12-05 21:07:00,40.3,36.8,29.87,WNW,296,15.0,18.0,87,0.06,,,0.31,VWS V13.01,2013-12-05 20:07:00,
2013-12-05 21:08:00,40.2,36.7,29.87,WNW,286,7.0,18.0,87,0.05,,,0.31,VWS V13.01,2013-12-05 20:08:00,
2013-12-05 21:09:00,40.2,36.7,29.87,WNW,297,6.0,18.0,87,0.05,,,0.31,VWS V13.01,2013-12-05 20:09:00,
2013-12-05 21:10:00,40.1,36.5,29.87,WNW,294,9.0,18.0,87,0.05,,,0.31,VWS V13.01,2013-12-05 20:10:00,
2013-12-05 21:11:00,40.0,36.5,29.87,WNW,294,17.0,17.0,87,0.05,,,0.31,VWS V13.01,2013-12-05 20:11:00,
2013-12-05 21:12:00,40.0,36.5,29.87,WNW,294,10.0,17.0,87,0.05,,,0.31,VWS V13.01,2013-12-05 20:12:00,
2013-12-05 21:13:00,39.9,36.3,29.87,West,275,13.0,18.0,87,0.04,,,0.31,VWS V13.01,2013-12-05 20:13:00,
2013-12-05 21:15:00,39.9,36.3,29.87,West,266,10.0,18.0,87,0.04,,,0.31,VWS V13.01,2013-12-05 20:15:00,
2013-12-05 21:16:00,39.8,36.2,29.87,West,262,12.0,14.0,87,0.04,,,0.31,VWS V13.01,2013-12-05 20:16:00,
2013-12-05 21:17:00,39.8,36.2,29.87,West,279,13.0,15.0,87,0.03,,,0.31,VWS V13.01,2013-12-05 20:17:00,
2013-12-05 21:19:00,39.8,36.2,29.87,WNW,292,14.0,20.0,87,0.03,,,0.31,VWS V13.01,2013-12-05 20:19:00,
2013-12-05 21:20:00,39.8,36.2,29.87,WNW,286,12.0,20.0,87,0.03,,,0.31,VWS V13.01,2013-12-05 20:20:00,
2013-12-05 21:22:00,39.8,36.5,29.87,West,277,15.0,18.0,88,0.03,,,0.31,VWS V13.01,2013-12-05 20:22:00,
2013-12-05 21:24:00,40.0,36.7,29.87,WNW,290,7.0,19.0,88,0.02,,,0.31,VWS V13.01,2013-12-05 20:24:00,
2013-12-05 21:25:00,40.0,36.7,29.87,NNW,336,21.0,21.0,88,0.02,,,0.31,VWS V13.01,2013-12-05 20:25:00,
2013-12-05 21:27:00,39.9,36.6,29.87,West,272,11.0,19.0,88,0.02,,,0.31,VWS V13.01,2013-12-05 20:27:00,
2013-12-05 21:29:00,39.8,36.5,29.87,WNW,296,10.0,22.0,88,0.01,,,0.31,VWS V13.01,2013-12-05 20:29:00,
2013-12-05 21:30:00,39.8,36.5,29.88,NW,320,13.0,22.0,88,0.01,,,0.31,VWS V13.01,2013-12-05 20:30:00,
2013-12-05 21:32:00,39.8,36.5,29.88,NW,317,20.0,20.0,88,0.01,,,0.31,VWS V13.01,2013-12-05 20:32:00,
2013-12-05 21:34:00,39.7,36.4,29.88,WNW,288,11.0,20.0,88,0.01,,,0.31,VWS V13.01,2013-12-05 20:34:00,
2013-12-05 21:35:00,39.6,36.3,29.88,NW,317,11.0,20.0,88,0.02,,,0.32,VWS V13.01,2013-12-05 20:35:00,
2013-12-05 21:37:00,39.6,36.3,29.88,NW,318,6.0,16.0,88,0.02,,,0.32,VWS V13.01,2013-12-05 20:37:00,
2013-12-05 21:39:00,39.5,36.2,29.88,NW,306,9.0,17.0,88,0.02,,,0.32,VWS V13.01,2013-12-05 20:39:00,
2013-12-05 21:41:00,39.5,36.2,29.88,NNW,338,11.0,29.0,88,0.02,,,0.32,VWS V13.01,2013-12-05 20:41:00,
2013-12-05 21:42:00,39.5,36.2,29.88,West,268,12.0,20.0,88,0.02,,,0.32,VWS V13.01,2013-12-05 20:42:00,
2013-12-05 21:44:00,39.5,36.2,29.88,NNW,345,14.0,33.0,88,0.02,,,0.32,VWS V13.01,2013-12-05 20:44:00,
2013-12-05 21:45:00,39.5,36.2,29.89,West,272,17.0,33.0,88,0.02,,,0.32,VWS V13.01,2013-12-05 20:45:00,
2013-12-05 21:46:00,39.6,36.3,29.89,West,277,16.0,33.0,88,0.02,,,0.32,VWS V13.01,2013-12-05 20:46:00,
2013-12-05 21:47:00,39.6,36.1,29.89,West,267,14.0,24.0,87,0.02,,,0.32,VWS V13.01,2013-12-05 20:47:00,
2013-12-05 21:48:00,39.6,36.1,29.89,NNW,341,21.0,24.0,87,0.02,,,0.32,VWS V13.01,2013-12-05 20:48:00,
2013-12-05 21:49:00,39.6,36.1,29.89,WNW,296,9.0,24.0,87,0.02,,,0.32,VWS V13.01,2013-12-05 20:49:00,
2013-12-05 21:50:00,39.6,36.1,29.89,NNW,332,9.0,24.0,87,0.02,,,0.32,VWS V13.01,2013-12-05 20:50:00,
2013-12-05 21:51:00,39.5,37.4,29.89,NW,315,11.0,24.0,92,0.02,,,0.32,VWS V13.01,2013-12-05 20:51:00,
2013-12-05 21:53:00,39.5,36.0,29.89,WNW,290,18.0,28.0,87,0.02,,,0.32,VWS V13.01,2013-12-05 20:53:00,
2013-12-05 21:54:00,39.4,35.9,29.89,NW,321,11.0,28.0,87,0.02,,,0.32,VWS V13.01,2013-12-05 20:54:00,
2013-12-05 21:55:00,39.4,35.9,29.89,WNW,299,9.0,28.0,87,0.02,,,0.32,VWS V13.01,2013-12-05 20:55:00,
2013-12-05 21:56:00,39.4,35.9,29.89,NW,322,6.0,28.0,87,0.02,,,0.32,VWS V13.01,2013-12-05 20:56:00,
2013-12-05 21:58:00,39.4,35.9,29.89,NW,315,7.0,16.0,87,0.01,,,0.32,VWS V13.01,2013-12-05 20:58:00,
2013-12-05 21:59:00,39.4,35.9,29.89,NW,318,11.0,17.0,87,0.01,,,0.32,VWS V13.01,2013-12-05 20:59:00,
2013-12-05 22:00:00,39.4,35.9,29.89,WNW,292,7.0,17.0,87,0.01,,,0.32,VWS V13.01,2013-12-05 21:00:00,
2013-12-05 22:01:00,39.4,35.9,29.89,West,275,10.0,17.0,87,0.01,,,0.32,VWS V13.01,2013-12-05 21:01:00,
2013-12-05 22:03:00,39.4,35.9,29.89,NNW,327,11.0,16.0,87,0.01,,,0.32,VWS V13.01,2013-12-05 21:03:00,
2013-12-05 22:04:00,39.5,36.0,29.89,WNW,286,7.0,16.0,87,0.01,,,0.32,VWS V13.01,2013-12-05 21:04:00,
2013-12-05 22:05:00,39.5,36.0,29.89,WNW,288,10.0,16.0,87,0.01,,,0.32,VWS V13.01,2013-12-05 21:05:00,
2013-12-05 22:06:00,39.5,36.0,29.89,NW,320,4.0,16.0,87,0.01,,,0.32,VWS V13.01,2013-12-05 21:06:00,
2013-12-05 22:08:00,39.5,36.0,29.89,WNW,291,11.0,21.0,87,0.01,,,0.32,VWS V13.01,2013-12-05 21:08:00,
2013-12-05 22:09:00,39.6,36.1,29.89,WNW,290,17.0,21.0,87,0.01,,,0.32,VWS V13.01,2013-12-05 21:09:00,
2013-12-05 22:10:00,39.6,36.1,29.89,WNW,299,11.0,21.0,87,0.01,,,0.32,VWS V13.01,2013-12-05 21:10:00,
2013-12-05 22:11:00,39.7,36.2,29.89,WNW,283,11.0,14.0,87,0.01,,,0.32,VWS V13.01,2013-12-05 21:11:00,
2013-12-05 22:12:00,39.7,36.2,29.89,NW,325,5.0,19.0,87,0.01,,,0.32,VWS V13.01,2013-12-05 21:12:00,
2013-12-05 22:13:00,39.8,36.2,29.89,WNW,283,11.0,19.0,87,0.01,,,0.32,VWS V13.01,2013-12-05 21:13:00,
2013-12-05 22:15:00,39.9,36.3,29.89,WNW,299,9.0,19.0,87,0.01,,,0.32,VWS V13.01,2013-12-05 21:15:00,
2013-12-05 22:16:00,39.9,36.3,29.88,West,281,9.0,19.0,87,0.01,,,0.32,VWS V13.01,2013-12-05 21:16:00,
2013-12-05 22:17:00,40.0,36.5,29.88,WNW,291,5.0,16.0,87,0.01,,,0.32,VWS V13.01,2013-12-05 21:17:00,
2013-12-05 22:18:00,40.1,36.3,29.88,West,280,10.0,16.0,86,0.01,,,0.32,VWS V13.01,2013-12-05 21:18:00,
2013-12-05 22:19:00,40.1,36.3,29.88,WNW,282,6.0,16.0,86,0.01,,,0.32,VWS V13.01,2013-12-05 21:19:00,
2013-12-05 22:20:00,40.2,36.3,29.88,WNW,303,6.0,17.0,86,0.01,,,0.32,VWS V13.01,2013-12-05 21:20:00,
2013-12-05 22:21:00,40.2,36.3,29.88,NNW,327,4.0,17.0,86,0.01,,,0.32,VWS V13.01,2013-12-05 21:21:00,
2013-12-05 22:22:00,40.2,36.3,29.88,West,275,9.0,19.0,86,0.01,,,0.32,VWS V13.01,2013-12-05 21:22:00,
2013-12-05 22:24:00,40.3,36.2,29.88,NW,311,4.0,19.0,85,0.01,,,0.32,VWS V13.01,2013-12-05 21:24:00,
2013-12-05 22:25:00,40.4,36.0,29.88,NNW,327,10.0,21.0,84,0.01,,,0.32,VWS V13.01,2013-12-05 21:25:00,
2013-12-05 22:26:00,40.5,35.8,29.88,NW,313,6.0,21.0,83,0.01,,,0.32,VWS V13.01,2013-12-05 21:26:00,
2013-12-05 22:27:00,40.6,35.5,29.88,NW,311,10.0,18.0,82,0.01,,,0.32,VWS V13.01,2013-12-05 21:27:00,
2013-12-05 22:29:00,40.7,35.3,29.88,WNW,292,4.0,18.0,81,0.01,,,0.32,VWS V13.01,2013-12-05 21:29:00,
2013-12-05 22:30:00,40.8,35.4,29.88,NNW,346,17.0,21.0,81,0.01,,,0.32,VWS V13.01,2013-12-05 21:30:00,
2013-12-05 22:31:00,40.9,35.2,29.87,NNW,327,14.0,20.0,80,0.01,,,0.32,VWS V13.01,2013-12-05 21:31:00,
2013-12-05 22:33:00,41.1,35.1,29.87,WNW,294,10.0,20.0,79,0.01,,,0.32,VWS V13.01,2013-12-05 21:33:00,
2013-12-05 22:34:00,41.3,35.0,29.87,WNW,284,11.0,20.0,78,0.01,,,0.32,VWS V13.01,2013-12-05 21:34:00,
2013-12-05 22:35:00,41.3,35.0,29.87,West,266,6.0,20.0,78,0.01,,,0.32,VWS V13.01,2013-12-05 21:35:00,
2013-12-05 22:36:00,41.4,35.1,29.87,West,275,14.0,14.0,78,0.01,,,0.32,VWS V13.01,2013-12-05 21:36:00,
2013-12-05 22:38:00,41.6,34.9,29.87,WNW,288,12.0,25.0,77,0.00,,,0.32,VWS V13.01,2013-12-05 21:38:00,
2013-12-05 22:39:00,41.7,34.7,29.87,West,273,7.0,25.0,76,0.00,,,0.32,VWS V13.01,2013-12-05 21:39:00,
2013-12-05 22:40:00,41.7,34.7,29.87,West,277,9.0,25.0,76,0.00,,,0.32,VWS V13.01,2013-12-05 21:40:00,
2013-12-05 22:41:00,41.8,34.5,29.87,West,268,10.0,15.0,75,0.00,,,0.32,VWS V13.01,2013-12-05 21:41:00,
2013-12-05 22:43:00,41.9,34.6,29.87,WNW,287,18.0,24.0,75,0.00,,,0.32,VWS V13.01,2013-12-05 21:43:00,
2013-12-05 22:44:00,42.0,34.3,29.87,West,280,9.0,24.0,74,0.00,,,0.32,VWS V13.01,2013-12-05 21:44:00,
2013-12-05 22:45:00,42.0,34.3,29.87,WSW,245,9.0,24.0,74,0.00,,,0.32,VWS V13.01,2013-12-05 21:45:00,
2013-12-05 22:46:00,42.0,34.3,29.88,WNW,301,15.0,21.0,74,0.00,,,0.32,VWS V13.01,2013-12-05 21:46:00,
2013-12-05 22:48:00,42.1,34.1,29.88,WNW,286,14.0,24.0,73,0.00,,,0.32,VWS V13.01,2013-12-05 21:48:00,
2013-12-05 22:49:00,42.1,33.7,29.88,West,272,4.0,24.0,72,0.00,,,0.32,VWS V13.01,2013-12-05 21:49:00,
2013-12-05 22:50:00,42.1,33.7,29.88,NW,306,12.0,24.0,72,0.00,,,0.32,VWS V13.01,2013-12-05 21:50:00,
2013-12-05 22:51:00,42.1,33.7,29.88,WNW,292,6.0,15.0,72,0.00,,,0.32,VWS V13.01,2013-12-05 21:51:00,
2013-12-05 22:53:00,42.3,33.6,29.88,NNW,336,9.0,22.0,71,0.00,,,0.32,VWS V13.01,2013-12-05 21:53:00,
2013-12-05 22:54:00,42.3,33.6,29.88,WNW,288,7.0,22.0,71,0.00,,,0.32,VWS V13.01,2013-12-05 21:54:00,
2013-12-05 22:55:00,42.3,33.6,29.88,WNW,300,10.0,22.0,71,0.00,,,0.32,VWS V13.01,2013-12-05 21:55:00,
2013-12-05 22:56:00,42.4,33.7,29.88,West,280,14.0,18.0,71,0.00,,,0.32,VWS V13.01,2013-12-05 21:56:00,
2013-12-05 22:58:00,42.4,33.7,29.88,WNW,286,13.0,25.0,71,0.00,,,0.32,VWS V13.01,2013-12-05 21:58:00,
2013-12-05 23:00:00,42.4,33.7,29.88,West,263,6.0,25.0,71,0.00,,,0.32,VWS V13.01,2013-12-05 22:00:00,
2013-12-05 23:01:00,42.5,33.8,29.89,WNW,293,12.0,25.0,71,0.00,,,0.32,VWS V13.01,2013-12-05 22:01:00,
2013-12-05 23:02:00,42.5,33.8,29.89,WNW,293,14.0,17.0,71,0.00,,,0.32,VWS V13.01,2013-12-05 22:02:00,
2013-12-05 23:04:00,42.5,33.8,29.89,WNW,287,12.0,21.0,71,0.00,,,0.32,VWS V13.01,2013-12-05 22:04:00,
2013-12-05 23:05:00,42.5,33.8,29.89,NW,311,17.0,28.0,71,0.00,,,0.32,VWS V13.01,2013-12-05 22:05:00,
2013-12-05 23:06:00,42.5,33.8,29.89,NNW,334,11.0,28.0,71,0.00,,,0.32,VWS V13.01,2013-12-05 22:06:00,
2013-12-05 23:07:00,42.5,34.1,29.89,NNW,344,13.0,17.0,72,0.00,,,0.32,VWS V13.01,2013-12-05 22:07:00,
2013-12-05 23:09:00,42.4,34.4,29.89,WNW,303,24.0,24.0,73,0.00,,,0.32,VWS V13.01,2013-12-05 22:09:00,
2013-12-05 23:10:00,42.1,34.4,29.89,NW,311,7.0,35.0,74,0.00,,,0.32,VWS V13.01,2013-12-05 22:10:00,
2013-12-05 23:11:00,42.0,35.0,29.89,West,280,23.0,35.0,76,0.00,,,0.32,VWS V13.01,2013-12-05 22:11:00,
2013-12-05 23:12:00,41.5,34.8,29.89,NNW,336,16.0,22.0,77,0.00,,,0.32,VWS V13.01,2013-12-05 22:12:00,
2013-12-05 23:14:00,40.2,34.2,29.89,NW,324,8.0,26.0,79,0.00,,,0.32,VWS V13.01,2013-12-05 22:14:00,
2013-12-05 23:15:00,39.7,34.0,29.91,WNW,293,9.0,26.0,80,0.00,,,0.32,VWS V13.01,2013-12-05 22:15:00,
2013-12-05 23:16:00,39.6,34.0,29.91,NW,325,15.0,26.0,80,0.00,,,0.32,VWS V13.01,2013-12-05 22:16:00,
2013-12-05 23:17:00,39.3,34.0,29.91,NW,306,16.0,17.0,81,0.00,,,0.32,VWS V13.01,2013-12-05 22:17:00,
2013-12-05 23:18:00,39.2,33.9,29.91,WNW,288,17.0,21.0,81,0.00,,,0.32,VWS V13.01,2013-12-05 22:18:00,
2013-12-05 23:19:00,38.7,34.0,29.91,West,281,12.0,22.0,83,0.01,,,0.33,VWS V13.01,2013-12-05 22:19:00,
2013-12-05 23:20:00,38.5,34.1,29.91,WNW,293,9.0,22.0,84,0.01,,,0.34,VWS V13.01,2013-12-05 22:20:00,
2013-12-05 23:21:00,38.4,34.0,29.91,NW,310,10.0,22.0,84,0.01,,,0.34,VWS V13.01,2013-12-05 22:21:00,
2013-12-05 23:22:00,38.3,33.9,29.91,NW,319,13.0,13.0,84,0.02,,,0.34,VWS V13.01,2013-12-05 22:22:00,
2013-12-05 23:23:00,38.2,33.8,29.91,WNW,289,12.0,20.0,84,0.02,,,0.34,VWS V13.01,2013-12-05 22:23:00,
2013-12-05 23:24:00,38.1,33.7,29.91,NW,306,11.0,20.0,84,0.02,,,0.34,VWS V13.01,2013-12-05 22:24:00,
2013-12-05 23:26:00,38.1,33.7,29.91,NNW,340,14.0,20.0,84,0.02,,,0.34,VWS V13.01,2013-12-05 22:26:00,
2013-12-05 23:27:00,38.2,33.8,29.91,NNW,327,16.0,16.0,84,0.02,,,0.35,VWS V13.01,2013-12-05 22:27:00,
2013-12-05 23:28:00,38.2,33.8,29.91,NW,323,12.0,16.0,84,0.02,,,0.35,VWS V13.01,2013-12-05 22:28:00,
2013-12-05 23:30:00,38.3,34.2,29.91,WNW,292,9.0,22.0,85,0.02,,,0.35,VWS V13.01,2013-12-05 22:30:00,
2013-12-05 23:31:00,38.4,34.3,29.90,NNW,330,12.0,22.0,85,0.02,,,0.35,VWS V13.01,2013-12-05 22:31:00,
2013-12-05 23:32:00,38.6,34.5,29.90,NW,322,11.0,15.0,85,0.02,,,0.35,VWS V13.01,2013-12-05 22:32:00,
2013-12-05 23:33:00,38.6,34.5,29.90,WNW,298,12.0,15.0,85,0.02,,,0.35,VWS V13.01,2013-12-05 22:33:00,
2013-12-05 23:35:00,38.8,34.4,29.90,WNW,294,11.0,17.0,84,0.03,,,0.35,VWS V13.01,2013-12-05 22:35:00,
2013-12-05 23:36:00,38.9,34.5,29.90,NW,317,12.0,17.0,84,0.03,,,0.35,VWS V13.01,2013-12-05 22:36:00,
2013-12-05 23:37:00,38.9,34.5,29.90,NW,314,7.0,14.0,84,0.03,,,0.35,VWS V13.01,2013-12-05 22:37:00,
2013-12-05 23:38:00,39.1,34.7,29.90,West,277,13.0,14.0,84,0.03,,,0.35,VWS V13.01,2013-12-05 22:38:00,
2013-12-05 23:40:00,39.2,34.8,29.90,NW,325,11.0,23.0,84,0.03,,,0.36,VWS V13.01,2013-12-05 22:40:00,
2013-12-05 23:41:00,39.3,34.9,29.90,West,268,20.0,21.0,84,0.04,,,0.36,VWS V13.01,2013-12-05 22:41:00,
2013-12-05 23:42:00,39.3,34.9,29.90,WNW,283,10.0,21.0,84,0.04,,,0.36,VWS V13.01,2013-12-05 22:42:00,
2013-12-05 23:43:00,39.4,34.7,29.90,WNW,292,15.0,22.0,83,0.04,,,0.36,VWS V13.01,2013-12-05 22:43:00,
2013-12-05 23:46:00,39.4,35.0,29.91,West,276,6.0,22.0,84,0.04,,,0.36,VWS V13.01,2013-12-05 22:46:00,
2013-12-05 23:47:00,39.4,35.0,29.91,West,268,6.0,11.0,84,0.04,,,0.36,VWS V13.01,2013-12-05 22:47:00,
2013-12-05 23:48:00,39.3,34.9,29.91,WNW,292,14.0,21.0,84,0.04,,,0.37,VWS V13.01,2013-12-05 22:48:00,
2013-12-05 23:51:00,39.2,34.8,29.91,NNW,327,7.0,21.0,84,0.05,,,0.37,VWS V13.01,2013-12-05 22:51:00,
2013-12-05 23:52:00,39.2,34.8,29.91,West,273,5.0,10.0,84,0.05,,,0.37,VWS V13.01,2013-12-05 22:52:00,
2013-12-05 23:53:00,39.1,34.7,29.91,NW,305,19.0,19.0,84,0.05,,,0.37,VWS V13.01,2013-12-05 22:53:00,
2013-12-05 23:56:00,39.1,34.7,29.91,WNW,296,11.0,20.0,84,0.05,,,0.37,VWS V13.01,2013-12-05 22:56:00,
2013-12-05 23:57:00,39.2,34.5,29.91,West,280,15.0,18.0,83,0.05,,,0.37,VWS V13.01,2013-12-05 22:57:00,
2013-12-05 23:58:00,39.3,34.6,29.91,NW,319,9.0,20.0,83,0.05,,,0.37,VWS V13.01,2013-12-05 22:58:00,